GFSGL_850_spd_063.txt.gz
Wind_Speed
15 18 22 25 29 32 34 35 36 39 39 40 41 42 41 37 32 31 30 30 29 27 26 27 29 29 28 26 25 26 27 29 38 32 27 25 25 22 22 25 26 26 28
18 21 25 30 33 34 35 36 37 38 39 40 40 39 36 34 31 29 30 29 28 27 26 28 30 30 31 29 29 28 28 30 35 35 29 26 25 25 25 26 30 29 28
21 24 29 32 32 33 35 36 36 38 39 39 37 35 35 31 29 30 29 29 28 29 31 32 31 30 32 31 31 29 30 32 32 33 31 26 27 25 27 27 29 31 31
23 28 30 31 32 34 35 36 36 37 39 37 34 34 30 29 31 33 33 30 30 32 34 35 36 37 32 32 33 34 31 32 33 31 30 29 26 23 25 25 31 30 32
26 29 30 31 33 34 35 36 37 38 36 34 32 28 27 31 31 31 32 35 38 39 40 41 41 41 38 37 36 35 33 33 37 35 33 27 26 24 26 23 27 27 29
28 29 30 32 33 35 36 37 38 36 33 30 28 29 31 31 31 30 31 34 36 41 42 42 41 42 43 37 39 38 43 42 37 38 35 30 25 24 24 26 23 28 28
28 30 30 31 34 35 37 39 36 32 32 28 28 29 30 31 31 31 33 35 36 40 41 39 40 37 36 37 39 33 33 32 30 31 35 35 31 28 24 22 25 26 28
29 30 29 32 35 37 38 36 32 31 31 30 32 32 33 32 31 33 31 35 36 40 42 43 43 40 37 31 38 31 28 32 30 31 29 25 23 19 22 23 23 26 25
28 28 30 33 36 37 37 33 30 33 33 32 32 32 29 31 29 29 33 37 41 44 44 43 46 35 33 27 28 28 27 25 24 24 25 28 31 27 25 21 26 25 22
28 29 32 34 35 36 33 30 32 32 31 31 30 26 28 29 28 32 33 38 40 40 40 40 36 32 23 19 21 25 22 23 19 19 21 23 23 27 27 25 27 25 25
27 30 33 34 36 32 28 30 30 31 29 29 27 28 28 29 28 28 30 36 37 37 32 28 19 16 13 14 14 16 18 15 18 19 18 21 22 21 26 28 29 28 26
28 32 34 35 33 28 30 30 29 30 29 28 28 30 27 27 27 28 31 31 31 27 22 16 7 1 6 8 9 13 14 16 18 18 17 17 14 20 20 26 28 28 28
30 33 34 34 27 28 30 30 30 29 28 27 29 28 30 27 28 30 32 29 24 20 15 9 6 2 1 3 5 7 9 14 18 22 18 17 14 12 13 17 21 19 16
31 33 35 26 27 31 28 29 29 27 26 29 27 26 29 24 27 30 32 31 24 19 14 6 5 3 2 2 2 7 10 8 11 13 11 12 7 4 15 14 15 19 19
30 31 30 26 31 29 28 28 25 22 22 23 23 25 23 26 28 27 27 29 25 17 13 7 1 2 3 4 3 9 8 7 11 14 12 11 7 11 14 15 17 21 20
30 30 29 29 27 27 29 29 22 20 20 18 17 21 25 26 25 25 24 24 20 16 8 7 4 2 4 4 7 11 3 7 11 14 15 13 10 18 19 18 20 20 18
28 28 27 29 26 28 27 26 26 26 20 17 18 22 20 27 25 22 22 19 15 13 9 4 4 3 5 5 4 6 10 9 8 13 16 12 21 20 15 12 13 15 15
27 24 26 27 25 25 24 23 23 23 23 23 20 23 23 27 24 21 20 18 17 16 14 12 6 3 6 5 4 1 5 8 14 15 18 17 17 16 14 14 17 18 19
27 23 25 23 23 23 22 21 21 20 20 22 23 25 25 28 26 23 23 20 19 18 16 13 9 5 3 4 5 5 6 4 8 14 14 15 16 14 12 12 13 14 16
23 22 23 21 22 22 22 21 20 19 20 21 24 24 26 29 29 29 23 21 19 18 16 14 11 8 4 6 7 8 8 11 12 14 15 15 14 15 14 12 13 14 17
22 23 22 21 22 21 22 20 18 18 17 21 22 24 23 25 26 27 24 20 19 18 15 14 13 10 8 6 9 10 11 13 12 14 17 17 17 15 15 13 14 15 18
22 20 21 20 21 21 21 19 18 19 18 21 24 25 24 27 27 25 22 22 21 18 14 14 14 12 11 10 10 14 15 15 17 18 17 19 20 19 18 16 16 19 19
20 19 20 19 21 20 20 21 18 18 19 21 24 22 24 27 28 26 24 25 23 20 16 14 13 12 12 13 13 15 19 18 17 19 19 19 21 23 22 19 19 20 20
19 17 18 17 21 20 21 20 20 20 20 22 22 19 26 29 30 29 29 28 26 23 20 15 11 10 12 14 16 17 18 23 21 19 20 20 20 24 23 21 21 22 23
16 16 16 17 18 22 24 22 19 20 21 21 19 24 29 31 30 31 32 31 30 28 23 17 11 6 7 11 13 17 20 24 25 22 20 20 17 18 19 24 23 24 25
15 14 16 17 17 19 22 23 21 20 21 23 23 28 27 28 29 32 34 34 33 30 26 22 16 10 4 3 8 12 19 24 28 23 20 20 21 21 23 25 27 26 25

GFSGL_850_spd_066.txt.gz
Wind_Speed
13 14 16 19 22 24 25 25 25 27 29 30 31 30 29 28 26 25 25 26 26 27 26 28 29 28 29 28 29 31 34 33 37 34 28 26 26 25 23 22 23 24 25
16 18 19 22 24 24 23 24 26 27 28 29 30 30 29 27 25 25 25 25 26 27 28 27 27 26 27 28 29 29 32 31 36 36 31 29 27 25 24 23 22 23 25
19 19 21 23 24 25 27 29 29 28 29 29 29 29 28 27 26 24 25 26 27 28 28 28 30 31 33 33 34 34 33 32 32 34 33 34 31 26 24 24 25 27 27
19 20 23 25 28 29 30 30 29 28 28 29 28 28 26 26 25 25 26 27 27 28 31 33 33 35 37 39 40 40 39 37 34 32 32 28 27 25 23 23 23 24 27
19 22 24 28 29 28 28 29 28 28 28 27 27 27 25 24 24 25 28 32 35 37 37 39 38 40 37 37 39 39 40 40 37 34 32 29 27 23 25 21 24 23 25
20 23 26 28 27 28 28 29 28 28 26 26 26 25 25 25 27 28 30 33 35 36 36 36 34 38 39 41 42 42 47 48 41 34 33 31 29 27 21 22 23 25 26
23 22 24 25 26 27 26 26 27 27 26 26 26 25 27 28 29 28 30 32 33 35 34 35 40 41 39 40 38 38 36 36 44 48 44 39 32 25 24 23 25 23 24
21 21 21 23 25 26 26 27 27 26 26 27 27 28 29 28 27 27 29 31 32 35 31 41 41 41 41 40 40 40 35 34 33 31 33 48 33 28 28 25 28 27 25
20 20 21 23 25 26 27 27 25 26 26 28 28 29 26 28 26 27 28 31 30 36 38 38 38 40 43 38 36 36 32 31 26 24 25 22 20 24 24 22 22 23 26
20 22 23 24 25 26 26 25 25 26 28 29 29 25 24 26 24 24 26 28 32 37 35 35 29 29 24 18 22 25 25 24 23 23 18 22 25 27 28 30 27 25 25
24 25 23 24 25 24 23 26 29 27 28 29 26 25 26 26 27 24 26 28 30 36 33 27 24 16 13 8 9 12 15 15 13 17 17 18 19 20 22 24 29 28 28
25 24 23 24 25 21 24 27 26 26 27 26 26 28 27 23 24 22 26 27 28 33 29 24 16 13 8 5 5 7 10 13 15 17 17 18 18 21 23 21 26 30 31
24 22 24 25 22 23 25 26 26 27 26 26 28 29 27 26 24 22 27 28 28 29 23 23 13 10 8 7 6 6 8 10 14 19 19 19 20 17 16 22 25 27 29
21 23 24 23 24 24 23 23 25 26 25 27 29 27 28 23 25 29 31 32 29 28 23 18 15 8 7 6 6 7 10 12 15 16 12 11 12 17 20 18 20 23 27
22 22 22 22 24 26 22 24 24 21 21 24 24 23 26 25 26 27 25 26 26 24 22 9 11 6 6 5 6 10 14 11 7 9 8 9 8 6 14 12 15 21 15
21 21 22 22 27 23 25 27 21 18 18 18 20 20 23 22 25 24 22 23 20 19 15 6 6 7 6 7 8 10 16 5 9 9 8 7 4 6 9 10 18 11 21
20 20 23 24 25 24 24 24 25 23 19 18 22 19 20 21 24 23 23 21 16 15 14 12 6 7 6 7 7 10 12 1 7 8 8 7 4 12 9 7 13 14 16
20 21 20 25 23 23 23 22 21 21 22 24 21 20 20 22 23 25 25 18 17 15 14 12 10 6 6 9 8 6 9 6 5 8 10 8 17 13 11 8 14 10 12
19 19 21 21 21 21 22 22 20 20 20 21 23 23 23 24 23 24 24 20 18 17 15 13 11 8 7 6 6 6 4 3 12 11 12 14 10 9 9 8 9 8 10
17 18 20 20 20 22 22 22 21 20 19 22 23 27 26 27 25 29 26 21 19 17 16 15 12 10 8 8 7 6 5 3 7 7 9 9 9 7 7 7 8 8 10
18 20 19 18 19 21 21 22 21 20 20 22 24 25 22 25 28 29 26 23 21 19 17 15 15 13 11 9 11 12 11 11 9 7 8 8 8 7 8 9 9 9 10
17 19 19 17 19 21 21 20 20 20 20 23 25 24 23 29 28 26 25 24 22 19 16 16 16 15 14 13 12 14 15 14 14 11 10 10 9 9 9 11 11 11 14
17 17 17 15 16 20 22 21 20 19 20 22 23 25 27 28 27 27 26 26 24 21 17 14 15 15 15 15 15 17 20 19 17 16 14 12 12 12 12 11 13 13 15
18 15 15 16 17 18 21 22 21 19 19 23 23 25 27 28 28 29 30 30 28 25 19 14 12 13 14 16 17 18 21 22 21 20 20 17 18 15 17 11 14 14 17
16 14 15 16 17 18 19 20 21 20 20 22 23 26 28 29 29 31 33 34 32 28 23 14 8 10 13 14 17 19 21 25 23 21 21 19 21 18 21 18 13 16 17
15 13 14 16 16 17 18 18 21 21 21 23 24 25 27 29 30 33 36 36 33 29 24 16 7 2 5 8 12 16 23 25 29 24 23 22 19 18 19 22 18 15 17

GFSGL_850_spd_069.txt.gz
Wind_Speed
7 8 10 11 13 15 17 19 20 22 24 25 26 27 27 28 27 27 27 27 28 28 28 29 32 33 36 37 35 35 33 32 38 37 34 35 29 29 27 28 27 27 26
10 12 12 14 15 17 19 21 22 24 24 26 26 27 28 28 28 27 27 27 29 30 30 30 30 31 33 30 31 32 32 31 34 36 32 31 28 33 32 28 27 26 26
12 12 13 15 17 18 21 22 23 24 25 26 26 27 28 28 27 26 27 29 29 30 32 33 32 31 33 34 35 35 37 38 39 37 35 31 33 30 33 35 28 28 28
12 13 15 17 19 21 21 22 24 24 26 26 26 27 27 27 27 28 30 30 30 32 34 35 37 36 38 38 40 40 40 41 42 39 40 36 33 33 30 28 30 29 29
12 14 17 19 20 21 22 23 24 25 26 26 27 26 26 27 29 28 29 33 35 37 38 38 39 40 38 38 40 42 42 43 40 39 36 35 33 32 31 27 26 26 25
15 18 19 20 21 22 23 24 25 26 26 26 26 28 31 31 28 28 30 34 35 36 38 37 37 35 37 37 37 39 41 43 48 42 41 39 36 32 29 28 26 24 24
17 18 19 20 22 23 24 25 26 27 27 26 27 30 31 33 29 29 29 32 33 33 34 34 35 35 33 40 43 42 43 41 39 42 48 42 40 34 33 32 27 26 26
17 19 20 21 23 24 25 26 26 26 25 26 29 29 32 34 29 28 29 32 30 30 29 31 34 38 38 40 39 44 41 37 36 37 35 33 39 33 31 36 26 28 27
18 19 21 22 24 24 26 27 26 25 28 30 29 29 33 31 26 27 26 30 28 31 33 29 36 36 31 32 35 38 42 44 34 25 25 27 23 31 33 38 29 31 31
19 20 21 22 23 25 26 26 24 27 30 30 31 31 27 26 26 23 26 29 28 31 34 35 39 30 25 26 27 27 23 26 24 24 20 21 22 25 23 25 26 27 27
19 20 21 22 24 24 24 23 28 29 28 30 29 26 26 25 25 28 25 25 30 32 35 36 39 30 19 20 17 13 7 9 12 14 17 17 17 19 24 28 30 32 33
19 20 21 22 23 23 23 26 27 27 29 29 27 28 28 27 26 22 23 27 30 30 31 32 34 28 18 15 11 10 6 8 8 11 12 15 18 21 23 24 26 31 33
19 20 22 22 22 22 23 26 26 27 27 27 28 31 29 26 28 19 24 28 27 27 28 28 29 19 16 12 9 8 6 6 9 14 18 20 19 19 20 22 27 25 29
19 21 21 22 22 22 25 23 26 28 27 27 30 29 28 26 26 26 30 31 30 29 27 30 16 16 9 9 7 6 8 10 10 16 19 17 17 18 26 22 19 24 24
19 20 21 20 22 25 25 23 26 26 22 25 26 25 28 27 26 24 26 29 27 25 26 23 12 10 8 8 8 10 13 19 12 6 7 10 9 12 18 20 19 18 25
19 19 20 21 23 26 27 29 27 23 21 20 21 21 23 22 24 26 27 26 24 20 21 18 14 10 10 9 9 10 15 16 7 7 7 7 8 9 7 11 12 16 20
17 19 20 21 25 25 27 27 31 29 22 21 21 21 21 23 25 24 26 27 21 18 17 17 15 12 11 10 9 9 14 9 4 3 6 4 3 4 3 5 9 9 19
17 18 18 21 24 24 26 27 26 27 28 28 24 23 23 25 25 24 30 26 21 17 17 17 17 15 12 10 10 8 10 9 2 5 3 5 3 5 3 3 11 17 17
16 16 18 23 22 21 25 26 26 27 25 25 27 27 27 25 25 27 27 24 21 19 19 19 16 15 13 10 8 8 7 7 8 6 3 13 10 9 7 6 9 14 17
15 18 19 20 20 21 25 26 26 25 24 24 26 27 27 28 31 29 26 23 22 21 20 20 19 15 14 10 9 8 4 2 8 5 8 6 7 7 6 6 10 12 11
18 17 21 21 18 21 24 25 26 24 23 24 26 27 28 27 29 25 26 26 24 23 21 19 19 18 15 12 10 9 9 8 9 4 6 7 5 6 7 8 8 8 12
15 16 20 19 18 21 23 25 26 24 24 24 28 27 25 28 27 26 27 28 27 24 20 18 18 18 17 15 12 12 14 13 13 10 5 5 6 5 5 9 10 14 15
14 17 17 18 19 21 23 22 25 25 24 25 25 29 28 31 29 29 31 32 30 27 22 17 16 18 17 16 15 15 16 16 15 15 10 8 7 7 9 8 10 14 15
14 16 17 18 20 21 21 22 23 23 25 25 27 27 27 28 31 31 35 35 33 30 24 17 14 15 15 16 16 17 17 19 19 18 15 11 9 9 11 11 10 11 14
14 15 17 17 21 20 21 21 22 24 25 24 28 25 26 29 32 35 39 38 35 32 25 17 11 11 12 13 16 18 19 21 22 19 17 15 11 11 12 13 10 10 11
14 14 16 17 19 20 20 22 22 23 24 25 26 24 28 33 36 39 41 40 36 31 25 17 8 6 7 9 12 17 21 22 23 22 20 17 16 16 13 15 12 13 12

GFSGL_850_spd_075.txt.gz
Wind_Speed
14 16 17 17 18 18 19 21 22 22 24 27 31 32 33 33 32 32 32 32 32 33 32 31 32 30 29 30 31 33 35 33 37 50 37 36 32 31 29 26 23 22 34
15 15 17 17 17 17 19 21 23 26 30 30 31 32 32 32 31 32 33 32 30 29 28 27 28 30 35 34 32 33 35 35 38 45 40 38 36 31 29 28 27 25 25
11 13 15 19 16 17 20 24 28 29 29 30 30 30 31 31 31 30 31 31 31 33 36 36 37 35 33 32 32 35 38 38 38 40 43 40 39 36 35 33 31 27 25
16 17 17 16 16 19 24 27 27 29 31 32 30 30 31 29 29 29 29 35 39 31 30 29 32 34 36 36 36 38 40 42 41 40 40 42 40 38 36 36 33 29 29
13 14 15 16 21 24 23 26 30 31 31 29 31 29 30 31 31 32 33 36 34 33 34 33 33 30 32 34 37 38 34 35 35 40 43 43 44 42 40 39 37 36 34
16 18 20 20 22 23 26 30 31 30 29 30 30 31 31 34 38 29 26 30 31 35 33 32 31 31 30 30 29 29 29 30 31 32 40 39 43 38 35 38 39 37 36
18 17 19 20 22 26 31 30 30 28 29 30 28 28 34 35 29 26 27 28 32 31 31 29 28 30 29 28 30 31 31 34 33 34 39 38 38 41 39 35 38 37 38
17 17 18 22 26 31 30 28 27 29 30 28 28 33 35 29 27 26 27 30 30 28 29 29 28 24 27 27 29 31 34 37 40 31 31 35 36 42 40 33 34 29 31
18 17 20 26 30 29 27 26 28 30 29 28 34 34 29 31 28 26 26 29 28 25 26 20 26 25 30 28 29 32 34 40 32 27 30 33 38 42 39 37 34 31 30
20 21 26 28 27 25 25 29 26 28 30 35 30 26 27 28 24 24 25 28 27 25 26 28 30 27 27 27 29 31 34 40 26 26 26 25 21 35 30 31 31 31 30
21 26 27 26 25 24 28 25 27 33 37 27 25 27 25 23 24 24 25 24 24 29 22 30 33 30 27 27 29 31 35 26 22 20 20 17 12 4 14 25 32 33 28
25 27 27 26 24 24 25 26 31 34 25 24 27 28 25 25 24 23 24 24 22 26 27 30 32 28 28 30 26 23 21 9 12 14 15 14 11 8 13 14 20 22 29
24 26 27 24 23 22 26 31 33 26 25 26 28 29 30 27 26 24 25 25 22 26 24 26 27 26 27 22 14 10 7 6 11 13 16 15 15 12 10 12 15 17 16
25 26 25 24 21 24 28 31 25 25 26 27 29 29 29 29 26 30 29 29 26 27 23 28 25 26 20 14 8 6 4 8 14 17 19 18 20 17 18 19 20 19 21
25 25 25 23 23 26 28 27 22 23 24 26 26 27 28 27 26 27 27 25 25 26 26 24 22 20 18 14 10 9 8 10 14 17 17 14 13 16 19 21 22 24 27
23 24 22 23 24 27 30 24 19 21 25 24 23 22 24 23 24 25 24 24 25 23 21 19 16 17 17 16 13 15 13 12 15 16 13 14 17 16 16 19 23 26 25
24 22 21 23 26 27 24 21 24 26 27 27 22 19 20 23 23 24 24 24 24 18 18 17 16 17 18 16 13 13 15 12 13 14 14 13 14 12 15 15 21 31 29
20 19 21 24 21 26 23 22 23 26 30 32 22 23 21 21 24 24 24 23 21 19 19 19 19 17 18 17 14 12 12 11 12 12 8 11 13 11 13 16 19 25 25
18 19 20 20 19 24 19 21 23 25 24 27 26 26 24 27 26 25 24 23 24 23 21 20 19 17 16 15 15 13 12 9 9 10 6 7 9 13 14 9 6 13 27
18 18 17 21 24 19 19 24 25 22 24 25 25 28 27 28 28 27 26 25 25 25 23 20 18 17 17 14 14 11 10 5 6 9 10 13 13 13 12 14 15 11 9
18 18 18 23 16 18 20 23 23 21 23 24 25 26 23 25 28 29 30 30 29 27 23 19 17 15 15 15 13 11 9 5 1 6 11 12 13 11 11 11 17 15 18
17 17 19 18 19 18 21 22 23 22 22 23 25 25 24 26 29 32 32 32 29 27 23 18 15 14 14 14 13 12 11 9 5 7 10 9 9 11 10 11 14 19 16
17 16 17 17 19 19 20 22 23 23 24 24 25 25 29 30 31 33 33 34 32 29 23 17 14 13 12 12 13 14 13 13 10 7 9 6 6 11 9 10 13 14 14
15 15 15 18 19 19 20 21 23 23 23 24 25 26 28 31 31 34 35 36 34 31 25 18 12 11 9 10 13 16 15 17 18 12 7 7 5 8 8 9 10 11 12
15 16 15 18 20 19 21 22 23 24 25 25 27 29 30 30 33 34 35 35 35 31 25 17 10 8 6 6 12 16 18 20 21 17 11 9 5 6 7 8 11 11 13
15 15 17 19 19 19 21 21 23 24 25 25 28 29 30 32 32 34 36 36 35 31 24 16 8 5 5 3 9 16 20 22 26 21 16 11 8 7 7 7 10 12 15

GFSGL_850_spd_078.txt.gz
Wind_Speed
10 12 14 15 17 18 19 20 21 22 23 24 27 29 29 31 30 30 31 32 32 33 32 32 32 28 30 28 26 28 33 33 38 50 39 38 36 32 30 28 28 28 27
13 14 15 16 18 19 19 19 19 20 24 26 27 29 30 30 30 30 31 30 30 31 31 30 31 32 32 32 33 35 36 35 37 47 40 41 41 38 33 31 29 28 28
15 14 15 17 19 20 18 18 22 25 25 28 29 31 31 30 32 31 30 31 29 29 33 37 32 27 29 32 35 36 35 36 38 43 47 43 41 35 32 31 28 25 25
15 15 16 17 18 18 20 23 22 25 29 31 30 29 30 30 30 30 30 32 34 36 34 31 32 32 32 33 35 37 36 37 39 40 42 42 40 36 37 37 36 32 29
13 14 16 17 20 20 21 21 24 29 29 28 28 28 29 28 28 31 34 30 30 29 31 32 32 33 31 32 35 35 35 33 34 38 39 39 37 31 35 34 35 33 32
14 17 18 18 19 19 21 25 30 29 27 26 27 28 29 30 31 30 26 26 27 29 31 32 29 30 29 29 28 27 29 29 29 30 27 23 29 33 34 35 35 34 35
16 18 17 18 19 21 25 28 28 26 27 28 29 29 31 34 34 26 25 26 29 30 27 28 30 27 30 29 28 28 28 29 28 29 32 33 35 36 39 37 37 37 37
18 18 17 18 20 24 27 28 27 27 29 29 29 31 37 34 28 26 24 26 27 27 26 26 24 23 24 24 28 30 32 33 33 33 34 36 35 33 37 36 35 40 36
18 20 20 21 24 26 27 27 27 29 29 29 35 38 29 29 27 24 23 25 26 27 25 21 24 23 25 25 28 33 35 37 34 31 31 34 30 33 34 35 42 38 36
18 20 20 23 25 27 26 27 27 28 29 36 35 29 27 25 22 22 22 24 27 27 25 25 23 23 24 27 29 32 35 38 37 34 33 23 22 25 31 39 43 38 38
19 19 21 23 26 26 27 25 26 30 35 31 29 26 25 23 22 21 22 23 26 28 29 30 28 25 26 28 26 31 36 36 34 32 25 21 20 21 23 18 35 45 33
19 19 21 24 25 25 24 24 28 31 29 28 26 26 26 24 24 24 23 23 26 27 33 27 27 26 27 26 27 26 34 23 25 8 11 16 17 16 13 14 5 24 25
19 20 22 23 24 23 24 27 28 29 25 25 26 30 28 29 25 24 24 24 26 22 22 23 25 25 26 26 22 22 10 4 4 11 15 18 18 17 12 10 10 11 16
20 20 21 24 23 23 24 27 29 23 22 24 27 29 29 27 26 25 26 26 25 26 24 29 27 24 23 19 18 14 8 6 9 12 16 19 19 14 16 13 15 15 18
21 21 23 23 23 23 25 27 23 19 19 23 27 27 27 27 25 24 25 24 24 26 26 26 23 18 18 18 17 13 12 13 15 14 15 20 16 12 14 16 21 21 24
21 23 22 22 23 25 23 25 19 18 20 20 23 22 23 22 22 23 23 23 25 23 22 23 21 18 17 18 19 17 14 16 16 15 17 18 15 16 18 18 17 26 26
22 21 20 20 24 22 24 23 25 22 25 19 21 20 19 21 21 24 23 23 24 21 21 22 21 22 19 18 19 18 16 15 12 13 17 18 13 17 15 20 19 26 28
20 18 19 20 23 25 22 21 23 22 28 24 22 19 19 20 21 24 21 23 23 21 21 21 21 22 20 17 18 18 16 12 11 12 14 14 17 19 16 20 20 24 28
18 19 19 20 21 19 18 19 22 24 22 23 25 24 19 22 25 24 22 22 24 24 24 23 21 20 20 17 16 16 15 10 10 11 11 10 8 14 20 18 14 14 29
18 18 18 19 18 18 17 21 23 22 22 22 22 25 24 28 27 26 27 26 25 27 25 23 20 18 18 18 16 14 13 8 7 9 12 12 14 18 21 17 10 3 22
18 18 17 20 16 18 16 22 22 21 21 22 23 23 21 25 27 27 28 29 27 27 26 21 19 17 17 15 16 13 11 7 4 6 10 13 16 17 20 15 12 13 8
18 17 19 15 19 18 19 19 21 21 21 23 23 24 23 24 27 29 31 30 28 26 24 20 18 16 15 14 14 12 10 11 7 2 5 11 15 15 16 19 21 20 18
16 16 17 17 18 17 18 20 20 21 22 22 24 25 26 27 29 29 30 30 30 28 23 20 17 16 13 12 13 13 12 12 8 7 4 8 12 13 13 16 15 15 17
15 16 15 19 19 18 19 19 20 21 21 23 25 25 27 28 29 29 31 33 32 29 24 20 15 13 11 10 11 13 14 15 14 8 5 7 8 11 11 10 13 11 13
15 14 17 19 17 19 20 21 21 22 23 24 26 27 27 28 29 32 33 34 33 30 25 19 13 10 9 7 9 13 14 18 19 12 8 6 5 8 10 9 9 11 12
14 14 16 17 17 19 20 22 23 24 24 24 26 27 28 30 31 33 35 35 34 30 25 18 12 8 7 5 6 12 15 18 21 16 10 7 5 6 8 8 9 9 11

GFSGL_850_spd_084.txt.gz
Wind_Speed
5 7 9 11 13 14 15 15 16 18 17 17 20 22 24 25 27 29 30 29 30 31 30 30 32 30 31 30 29 29 31 33 41 53 40 35 35 33 32 30 29 28 26
6 8 11 13 14 13 14 16 16 16 18 20 21 22 26 28 28 28 29 29 29 29 28 28 32 31 32 32 33 35 36 34 34 43 37 40 39 34 32 33 31 29 28
9 11 12 13 13 14 16 17 18 19 19 19 23 26 27 27 27 27 28 28 27 29 29 30 28 25 27 28 29 30 31 33 35 38 40 38 38 36 32 31 30 26 24
10 11 10 11 14 16 18 18 18 18 20 24 26 27 27 28 29 30 28 29 31 30 30 27 27 28 29 29 29 29 28 31 35 36 34 35 33 30 28 27 28 26 24
9 10 12 14 16 17 17 17 18 21 24 25 26 27 28 30 29 29 31 33 33 34 29 31 30 29 26 29 30 31 29 29 32 29 31 36 35 27 30 26 26 25 22
10 11 14 15 15 15 16 17 20 23 25 26 27 29 29 29 29 32 32 30 28 28 31 31 31 26 29 29 27 26 26 25 22 23 27 24 23 25 22 22 23 24 29
11 12 14 14 15 16 16 19 22 24 26 27 28 28 29 32 34 32 26 27 27 29 30 29 27 28 26 29 25 24 23 24 22 22 26 28 28 27 24 25 28 30 32
11 13 15 17 18 18 19 21 24 27 27 28 28 29 33 34 30 29 25 24 27 26 25 25 28 26 27 25 25 24 26 26 26 27 29 31 30 29 30 31 31 33 35
11 13 15 17 18 19 21 24 27 28 28 28 30 32 33 31 26 24 23 24 23 24 23 24 26 26 28 27 26 29 29 31 31 33 31 31 32 31 31 30 31 31 39
13 17 18 18 18 20 22 25 27 27 27 30 32 32 27 26 25 23 22 22 28 24 25 26 25 24 26 21 24 28 30 33 27 32 34 35 28 29 30 31 31 31 31
15 17 16 17 18 21 23 25 26 27 29 31 31 27 24 22 27 24 22 23 24 26 26 26 25 21 24 23 24 26 24 24 29 33 35 30 28 26 22 24 28 28 27
15 16 18 20 20 22 24 24 26 27 30 30 28 26 24 27 27 23 22 21 22 24 26 26 21 23 23 26 25 28 26 23 26 23 18 9 10 9 12 15 18 23 26
15 18 19 20 21 23 23 25 27 27 28 27 25 26 27 28 30 26 22 22 24 23 26 26 23 24 25 29 26 20 19 21 18 16 14 11 11 10 11 14 18 23 24
16 17 19 22 22 21 22 24 25 27 25 25 26 26 31 26 29 25 26 27 27 28 28 23 22 28 28 27 24 19 16 15 14 16 18 20 18 15 14 14 18 17 19
16 20 22 21 21 22 24 25 27 24 21 24 24 28 25 28 27 25 25 26 25 26 26 30 29 27 24 22 19 14 15 17 15 14 17 20 21 20 18 16 19 19 18
20 23 22 21 22 23 25 27 22 22 23 19 21 20 23 22 23 24 25 24 25 25 26 25 25 23 22 21 20 19 16 16 17 17 18 18 17 16 18 20 18 21 23
20 21 21 21 21 23 25 26 29 27 23 23 19 20 19 21 22 23 24 25 25 24 22 23 23 22 22 21 20 20 19 15 16 18 14 13 16 19 23 22 22 23 26
20 18 19 20 21 24 24 24 22 26 28 28 22 21 20 20 21 24 25 25 25 22 24 22 26 22 22 20 19 19 18 15 15 14 14 15 17 19 20 23 24 25 27
16 20 20 20 21 22 22 21 20 24 24 27 26 24 23 23 25 27 24 24 25 26 26 24 23 22 21 19 18 17 16 17 15 13 12 14 16 20 25 29 27 25 26
19 20 19 20 21 24 22 21 23 23 24 25 26 27 28 31 31 29 27 26 26 26 25 26 23 21 20 18 17 15 15 15 12 8 8 12 17 23 25 31 23 29 22
20 19 19 18 21 22 21 21 22 23 24 25 26 26 24 27 28 28 28 27 26 26 26 26 23 20 19 17 16 14 14 13 8 5 7 11 19 26 27 30 24 13 4
18 18 18 20 22 20 20 20 22 23 24 25 27 28 26 27 28 28 28 28 27 27 27 25 23 21 18 16 14 13 12 11 9 6 7 11 18 23 23 25 19 8 9
17 18 17 21 22 20 22 21 23 23 25 27 28 29 29 29 28 29 29 29 28 28 27 24 22 19 16 14 12 11 12 11 8 5 5 10 17 21 22 24 17 7 9
17 18 18 22 24 21 24 23 25 24 22 27 30 30 31 30 30 30 30 30 30 30 29 25 21 17 15 12 10 10 9 11 10 6 1 7 13 17 19 22 16 13 9
18 18 18 21 24 24 24 25 24 27 24 26 30 31 32 30 31 32 32 32 32 32 31 26 21 17 13 10 8 9 8 13 14 10 3 4 11 14 16 20 17 12 8
18 18 19 19 23 24 26 25 26 26 26 26 27 29 30 30 31 33 34 34 34 33 32 28 21 15 11 7 6 7 9 14 16 10 5 4 8 11 13 16 15 15 11

GFSGL_850_spd_087.txt.gz
Wind_Speed
7 6 6 6 8 10 12 13 14 15 16 16 17 18 20 21 23 25 27 27 28 28 28 29 30 28 29 31 30 30 30 27 31 51 29 28 29 28 25 25 26 26 25
6 5 5 8 10 11 12 14 15 15 15 16 18 19 21 23 24 25 26 27 28 29 29 28 29 28 29 26 26 26 26 28 32 38 34 30 28 26 29 27 26 25 25
4 5 8 10 11 12 14 15 15 16 16 17 18 21 23 23 25 26 27 29 29 29 30 30 30 29 28 27 27 27 27 28 28 29 36 30 28 24 25 25 24 25 25
5 7 8 9 11 13 14 15 15 16 16 18 21 23 24 25 27 27 28 29 31 32 33 33 30 26 27 29 28 28 27 29 28 30 33 33 25 23 24 23 21 21 21
5 7 9 10 12 12 12 14 14 16 19 22 24 25 25 27 27 28 29 29 31 31 29 26 27 27 28 28 30 32 28 30 30 30 30 24 26 25 27 22 22 26 22
8 9 9 10 11 12 14 15 17 19 21 24 25 26 27 28 28 30 31 29 27 28 28 27 25 28 27 28 27 25 25 28 25 23 17 19 24 24 22 19 21 21 19
7 8 10 12 14 15 17 18 19 21 24 26 26 27 27 29 30 31 27 25 28 28 29 29 29 28 25 26 28 26 26 25 25 25 25 26 24 24 22 24 25 25 27
7 9 11 13 15 16 17 18 20 24 26 28 27 26 29 31 30 27 24 24 27 27 24 24 25 25 25 26 26 25 28 28 25 24 26 26 25 25 25 28 28 28 30
8 10 12 15 15 16 17 19 22 26 27 26 27 28 30 30 25 22 23 24 26 26 25 24 22 25 25 24 27 30 26 26 26 28 27 28 31 31 33 34 39 34 34
10 11 14 15 16 17 19 21 23 25 25 27 28 28 27 25 20 21 21 24 26 26 25 25 24 23 24 22 21 25 26 28 23 23 24 29 30 35 33 31 33 25 33
11 13 14 16 17 18 20 21 23 24 25 27 28 26 23 22 20 21 21 22 24 24 26 24 23 22 19 22 22 24 24 25 28 27 30 30 27 19 17 19 25 28 29
11 12 14 16 17 19 21 21 22 24 25 27 26 26 24 20 25 20 21 20 21 25 24 23 26 23 23 21 21 27 28 24 25 25 27 23 17 10 9 10 18 24 26
11 13 14 17 19 21 20 21 23 24 26 25 25 26 24 24 26 22 19 20 22 22 23 24 23 22 21 30 31 23 21 23 25 24 16 16 17 14 14 14 13 14 18
12 14 17 20 20 19 19 21 23 24 24 23 24 26 25 30 23 24 24 26 25 24 23 24 29 28 26 25 23 21 18 16 17 15 18 20 21 20 20 17 16 15 19
13 16 19 21 20 20 20 22 24 22 20 21 23 24 24 26 25 23 24 24 25 23 24 29 28 24 21 20 19 17 15 14 17 18 18 20 22 22 22 20 19 17 21
16 19 20 20 19 20 22 25 20 20 18 18 17 18 21 20 21 23 21 25 24 25 24 24 21 20 20 20 20 18 18 17 15 16 18 20 19 17 16 16 18 20 22
18 19 16 17 18 20 22 25 27 23 21 22 18 18 18 20 20 21 23 24 24 21 20 21 22 23 20 22 21 17 18 17 17 15 17 17 14 16 18 21 21 21 23
16 15 18 17 18 19 23 24 21 21 26 24 20 19 18 19 21 21 24 22 22 20 20 21 22 22 22 20 20 17 17 17 16 15 15 14 15 18 20 23 25 25 25
16 19 18 18 17 20 22 21 20 21 23 23 24 22 20 22 24 25 21 20 21 22 22 22 20 22 20 19 18 17 16 17 16 16 15 14 15 19 24 27 28 29 22
17 16 17 16 19 22 19 19 20 20 22 22 24 25 25 28 27 24 23 22 21 22 22 22 22 21 20 18 17 16 16 15 16 14 12 11 13 19 26 28 28 25 26
16 16 16 16 21 20 19 19 19 20 20 23 24 24 22 23 23 23 24 22 22 23 23 24 23 21 19 17 15 16 15 15 14 13 9 10 14 20 25 30 22 23 18
16 16 17 17 22 17 17 18 20 22 22 22 23 27 24 23 24 24 24 25 24 23 23 24 23 22 19 16 15 14 15 15 13 11 8 9 14 20 24 29 22 12 5
16 16 16 17 21 20 20 20 21 22 23 21 21 25 26 26 25 25 26 27 26 26 25 25 23 21 18 15 13 12 14 13 12 9 6 7 12 19 22 27 18 7 2
17 17 17 18 21 22 21 20 22 23 23 22 21 23 26 26 27 27 28 29 28 27 27 26 23 20 18 15 12 11 12 11 10 6 5 4 12 18 20 23 11 7 4
17 17 17 18 21 23 24 24 24 25 25 25 24 24 25 28 29 30 30 31 31 30 29 27 23 19 17 14 11 10 11 10 12 10 6 3 10 15 16 20 18 6 6
17 17 17 19 21 23 24 24 25 26 26 27 27 26 26 27 31 32 33 33 33 31 29 27 22 17 14 11 8 9 10 11 14 11 4 2 8 12 15 19 13 14 12

GFSGL_850_spd_090.txt.gz
Wind_Speed
13 11 9 7 7 9 10 11 11 12 14 15 16 16 16 17 15 16 18 19 20 20 20 21 23 22 23 22 22 24 26 26 32 44 27 25 29 29 28 27 26 25 25
10 8 7 7 8 9 9 10 13 14 15 15 16 17 15 16 17 18 19 19 21 22 23 23 24 23 24 24 25 26 27 27 30 36 30 28 27 25 24 25 24 24 26
9 7 6 7 8 7 9 12 13 13 12 13 14 14 16 18 19 19 20 21 22 23 24 24 26 25 28 27 27 27 28 28 28 29 30 24 24 23 25 25 24 24 23
6 6 6 6 8 9 11 12 13 12 12 11 13 16 18 19 19 20 21 21 22 23 24 26 27 27 28 27 27 28 28 28 29 31 32 33 25 24 24 23 25 23 23
5 5 6 7 9 11 12 12 12 13 12 13 15 16 17 18 19 19 21 23 26 27 27 26 27 27 28 29 31 31 34 31 28 29 31 32 31 29 25 22 23 20 20
5 4 6 9 11 11 11 12 11 13 13 14 16 18 19 19 22 26 27 26 26 25 27 29 30 27 29 29 29 28 27 28 27 25 27 31 22 24 22 20 20 21 22
3 5 8 10 10 9 12 14 15 14 15 17 19 19 20 20 25 28 27 23 24 25 29 26 27 24 25 24 24 25 26 26 25 26 26 26 27 23 22 21 22 21 23
5 6 7 8 10 13 14 15 14 14 16 18 19 20 22 24 26 26 24 21 23 23 26 24 26 24 24 23 25 27 27 25 26 27 25 26 24 23 24 25 26 27 28
3 4 7 11 12 13 14 13 14 15 17 19 20 22 23 23 23 24 20 20 21 23 22 23 22 24 25 26 26 30 30 28 25 23 24 26 29 30 25 28 32 31 30
6 8 12 13 13 14 13 14 17 19 19 20 22 21 22 22 21 20 18 21 23 23 21 20 22 26 21 23 24 26 26 30 28 24 20 22 23 24 24 27 34 37 35
10 11 12 13 15 16 17 17 18 17 20 20 20 20 19 19 20 18 20 21 21 23 25 26 24 23 21 25 25 28 29 21 22 25 26 24 23 26 27 22 23 27 34
9 11 12 13 15 17 16 15 15 16 18 19 19 18 19 16 22 20 20 19 20 22 25 24 20 21 23 25 26 25 24 25 28 28 25 20 21 23 18 13 16 16 22
9 8 10 13 13 13 14 14 15 16 17 17 18 22 21 22 22 18 18 18 23 22 23 22 24 24 24 27 25 24 23 22 20 21 20 21 21 18 21 19 17 16 16
7 8 11 13 15 13 13 13 14 15 16 17 20 23 22 23 20 18 19 26 23 25 23 25 27 25 24 20 19 17 15 15 16 18 18 16 17 19 22 20 20 19 18
8 10 13 13 12 12 12 13 15 14 16 18 20 21 22 20 19 22 23 23 24 23 24 24 24 19 18 18 16 16 17 16 16 16 18 18 17 18 20 20 20 21 21
9 12 12 11 11 11 13 14 15 19 17 14 18 16 19 19 20 21 20 24 23 23 23 20 17 18 18 19 18 19 16 16 17 17 16 18 19 18 18 16 15 19 21
12 10 11 11 11 13 14 16 21 20 16 15 15 16 18 18 19 20 22 23 21 18 16 17 18 18 19 21 20 19 18 16 16 17 17 16 18 18 16 18 20 23 26
11 13 12 11 12 13 15 17 17 17 20 19 18 18 17 18 20 21 21 19 16 15 16 18 20 20 20 20 18 20 18 16 15 16 16 17 18 17 19 21 24 29 30
14 13 13 12 13 17 16 16 15 17 20 20 23 19 19 19 21 18 17 17 19 19 19 20 20 21 21 21 20 20 18 17 16 16 17 18 17 17 20 25 28 31 29
13 14 14 13 13 15 16 15 16 19 20 21 22 21 23 25 22 21 19 20 20 21 22 21 21 21 20 20 20 19 17 17 17 16 17 16 15 17 22 26 31 32 28
13 14 15 13 13 16 15 17 16 20 21 22 22 20 20 24 21 22 23 22 22 22 23 22 22 22 20 20 19 17 17 17 16 16 16 15 15 18 19 26 31 26 20
14 14 15 14 16 15 17 18 19 20 20 22 23 20 20 20 22 23 24 23 23 22 22 22 23 23 21 20 19 18 16 16 16 16 15 13 14 17 20 24 29 18 13
15 15 14 14 14 17 19 18 20 19 20 21 23 22 23 23 24 26 25 25 25 25 25 24 24 24 21 19 19 17 15 16 16 15 13 11 13 15 20 23 24 22 8
15 15 15 14 16 19 21 21 20 19 21 21 21 23 23 24 25 27 27 27 27 28 28 27 25 23 20 19 18 16 15 15 14 12 10 8 12 15 20 22 22 24 8
15 15 15 14 19 21 23 20 21 22 23 23 22 24 24 26 27 27 28 28 29 31 31 27 24 21 19 17 16 14 12 13 12 11 10 7 11 15 19 22 23 21 19
15 15 16 17 20 22 22 21 21 23 23 24 26 26 27 27 28 29 30 32 33 33 29 26 23 19 16 15 12 10 10 11 10 12 7 5 9 15 20 23 20 21 11

GFSGL_850_spd_096.txt.gz
Wind_Speed
20 16 14 13 12 11 11 11 11 10 10 10 12 14 15 15 15 16 16 16 17 19 20 22 24 24 25 26 27 27 28 27 33 39 34 31 31 30 27 27 26 24 25
16 14 13 13 12 11 9 7 8 8 10 12 14 14 15 15 14 15 17 18 20 22 23 24 25 25 25 26 27 28 28 28 32 36 36 34 32 31 33 37 29 29 30
15 14 12 11 10 8 8 8 9 10 11 11 13 15 12 13 16 18 19 20 22 23 25 25 26 26 27 27 28 30 30 30 32 34 38 37 35 35 38 30 27 26 30
12 10 8 8 9 8 8 9 10 10 11 12 11 12 15 18 19 20 21 22 23 24 24 26 27 28 29 30 31 30 29 27 28 30 33 34 37 41 36 34 35 29 31
10 8 8 7 5 6 7 8 9 10 12 13 14 16 17 16 18 19 22 26 29 30 27 27 29 25 23 25 27 30 33 38 38 39 34 33 34 32 32 27 27 28 24
7 6 4 3 6 7 8 10 11 12 13 13 13 14 17 20 21 18 21 24 24 25 31 31 27 29 31 28 26 25 26 27 30 30 33 33 33 27 24 25 25 25 30
4 3 3 5 7 8 8 9 11 12 13 13 16 19 21 23 23 20 20 23 27 31 30 27 30 26 25 27 26 25 25 28 26 27 28 26 26 27 27 27 24 25 27
3 2 6 7 6 7 9 11 12 12 15 18 20 21 22 24 24 20 20 24 28 27 24 26 27 29 27 25 26 27 28 27 29 28 29 30 31 30 30 30 32 29 24
2 3 5 6 8 10 12 13 14 15 17 20 20 21 22 23 22 21 20 23 26 29 28 25 25 23 25 26 26 28 28 29 26 24 24 26 27 26 25 27 26 26 26
5 7 9 10 11 11 12 15 16 17 18 20 21 20 20 21 22 18 18 26 27 26 28 26 24 23 23 25 26 26 27 29 28 28 29 30 25 28 23 20 21 25 28
9 7 7 7 9 12 15 17 18 18 18 20 20 21 22 21 24 26 23 23 25 26 26 27 27 27 27 25 25 25 28 30 27 26 29 30 28 27 29 29 31 32 33
8 7 7 8 11 13 15 16 16 18 18 20 22 21 20 23 26 22 21 24 21 25 26 26 28 25 25 26 26 26 25 27 31 31 28 29 28 27 26 25 26 25 26
6 6 8 12 13 15 19 15 18 17 20 22 21 24 28 22 25 26 20 19 19 23 26 26 26 26 26 28 30 27 24 27 29 26 23 22 20 22 17 18 22 26 28
6 8 10 13 14 17 15 16 17 20 22 20 23 25 25 26 27 23 23 24 26 26 28 28 28 28 30 24 23 22 21 20 22 22 23 23 22 20 21 21 22 21 20
7 8 12 14 18 14 14 15 17 17 19 22 26 23 26 27 26 24 25 25 26 26 29 30 31 29 26 23 21 20 22 21 24 19 23 23 21 20 20 19 19 18 20
11 11 13 16 12 13 17 19 15 18 26 20 18 19 22 23 24 23 23 23 26 25 25 27 28 26 25 23 23 24 22 22 21 19 21 20 21 21 21 19 17 18 22
11 11 15 14 13 17 19 20 24 27 22 19 18 20 21 23 23 22 22 24 24 24 24 23 22 22 22 23 23 23 23 22 21 22 20 19 19 20 20 20 19 20 23
9 9 13 16 14 15 19 20 25 24 26 27 23 22 22 23 22 22 23 24 24 20 23 24 24 24 24 24 23 22 23 25 23 20 19 19 18 19 21 21 21 22 23
10 13 16 16 15 13 17 24 22 22 23 26 28 26 25 22 22 23 23 22 24 25 27 27 25 25 25 25 25 24 24 25 21 20 20 19 19 20 21 22 23 23 24
12 13 13 17 16 16 19 19 21 22 24 27 25 27 27 28 29 28 24 24 26 27 29 29 27 26 26 26 26 23 26 24 21 19 18 18 19 19 20 21 20 21 24
13 12 15 16 16 18 19 24 22 21 24 24 26 26 23 25 27 28 29 29 29 28 30 30 29 28 27 27 25 24 23 22 20 19 18 18 18 18 19 19 20 20 24
12 13 14 15 17 19 23 22 21 23 23 26 28 29 25 27 31 31 32 31 31 31 30 30 30 30 29 27 27 25 23 22 20 18 17 17 17 19 17 18 19 18 22
12 13 15 15 17 23 24 22 22 23 24 27 28 29 30 30 31 31 32 32 31 31 30 30 30 30 27 27 25 23 22 22 20 16 16 17 18 17 17 18 19 20 23
12 13 15 16 20 24 22 23 22 23 25 28 29 31 33 32 33 33 34 34 34 35 35 35 34 31 27 23 21 21 20 20 16 14 15 16 15 13 14 17 20 22 29
12 14 15 19 23 21 23 24 25 26 28 30 32 33 35 34 34 35 37 38 39 40 38 33 29 25 21 18 17 16 16 15 12 12 14 12 9 9 13 18 22 28 28
13 14 15 20 21 21 24 28 30 30 31 31 30 32 34 35 37 39 39 39 37 33 30 29 26 19 15 13 10 9 8 6 7 9 7 4 4 9 15 21 24 22 27

GFSGL_850_spd_099.txt.gz
Wind_Speed
20 20 21 20 19 19 17 16 16 15 15 14 12 12 13 14 15 15 15 16 17 18 19 21 23 23 24 24 24 25 26 27 32 34 33 34 32 31 30 26 27 28 30
17 18 17 15 13 13 11 10 10 9 9 9 11 13 13 14 15 16 16 17 19 21 22 23 24 25 26 27 27 28 29 28 32 36 35 35 34 35 31 31 31 34 32
17 17 14 13 11 9 7 6 6 7 10 11 12 13 15 14 15 17 19 20 20 21 22 24 25 26 27 28 28 28 28 28 30 33 34 34 35 34 33 32 33 35 29
15 13 13 11 9 6 5 6 8 9 10 11 12 13 13 16 19 21 19 22 22 24 25 27 29 31 32 31 29 26 26 28 28 30 35 38 39 40 42 39 37 30 30
10 9 8 6 5 5 7 8 9 9 10 12 13 15 17 16 16 17 20 20 24 27 30 28 26 29 26 23 25 28 31 34 35 37 35 31 30 29 30 27 23 22 22
7 4 3 4 5 6 6 7 9 10 12 13 13 14 15 17 21 23 20 22 23 25 25 28 32 34 27 25 21 22 24 27 28 31 23 25 26 24 22 24 23 23 27
3 2 3 4 6 7 8 10 11 12 13 13 13 15 19 23 24 21 19 21 24 26 28 31 30 27 24 26 26 24 23 24 25 25 25 28 29 28 29 29 29 27 28
2 3 4 6 7 9 11 13 14 14 15 17 19 21 23 24 24 21 18 20 24 25 24 25 30 28 26 24 22 26 28 26 23 23 26 26 25 25 26 30 31 31 32
4 4 5 8 11 13 14 14 14 17 18 19 20 21 22 21 19 18 17 22 25 27 30 26 26 24 21 22 24 27 27 28 24 23 24 23 24 24 23 25 25 23 26
5 7 10 12 11 11 12 14 17 17 18 18 18 20 18 19 22 21 18 21 29 28 27 24 22 22 22 22 25 28 29 28 29 28 26 25 24 23 24 22 22 20 18
8 11 9 8 10 11 14 17 17 17 17 20 19 19 21 22 23 24 21 23 24 27 25 26 25 23 23 24 24 24 21 21 24 20 23 28 27 26 24 25 27 30 31
8 6 5 8 10 14 17 18 20 16 19 19 22 24 24 25 25 21 19 20 19 22 24 25 26 24 24 24 24 25 26 26 29 29 29 29 23 18 18 17 21 23 26
3 4 6 10 13 15 18 18 18 17 19 22 23 25 27 26 21 20 19 18 18 22 24 25 25 25 22 26 30 24 20 24 24 22 20 20 19 19 19 19 18 18 20
6 8 10 12 16 18 16 13 16 19 21 22 24 27 26 24 22 22 22 23 23 24 24 24 27 22 29 27 23 19 17 16 18 20 22 22 19 18 18 17 19 18 21
8 11 14 15 15 13 12 16 18 18 17 21 26 21 23 26 26 23 24 23 24 24 26 27 27 28 29 24 20 18 17 18 18 19 19 19 19 19 17 16 18 18 20
10 12 11 12 12 14 16 18 18 19 22 20 16 16 20 22 21 22 22 21 22 23 24 27 26 22 21 20 19 19 19 19 18 19 19 19 20 18 18 17 17 17 19
9 9 11 13 16 16 17 20 23 24 23 16 17 18 18 20 21 21 21 21 23 21 24 22 23 23 22 21 20 21 20 20 19 20 20 19 17 16 16 17 18 19 20
7 8 14 15 15 14 15 20 25 24 27 26 24 20 17 18 19 20 21 21 22 18 20 23 24 25 23 23 22 21 21 21 20 21 18 16 16 16 17 18 19 20 21
10 12 13 15 15 15 16 19 22 24 22 25 25 23 20 21 22 22 20 20 22 23 23 22 24 24 23 23 22 21 21 21 20 21 19 18 18 17 19 20 21 20 20
11 11 12 15 14 16 18 22 24 21 22 22 24 25 23 26 27 26 23 23 25 25 26 26 26 25 25 24 23 22 22 20 22 20 18 16 16 17 19 20 20 20 20
11 11 12 13 15 18 21 26 20 20 21 22 24 24 21 23 25 26 26 26 26 27 27 26 26 26 26 25 25 24 22 22 21 20 19 17 16 18 19 19 19 20 22
10 11 13 14 17 21 25 20 20 20 21 23 26 25 24 25 27 28 28 28 28 27 26 27 27 27 25 24 23 22 22 22 21 19 18 16 16 18 18 19 20 20 22
10 11 13 16 20 21 18 20 21 22 23 25 27 27 29 29 29 29 29 30 29 29 29 29 30 29 26 23 21 20 20 20 19 18 16 16 17 18 17 19 18 20 22
10 12 14 17 20 17 19 22 23 25 25 26 27 28 30 30 31 32 32 32 31 30 30 28 27 27 22 18 16 16 17 16 16 15 14 15 17 16 16 17 17 18 21
10 12 15 18 19 20 23 27 27 26 27 27 28 31 33 33 34 33 33 32 30 29 28 27 27 24 20 15 12 11 12 12 13 11 11 14 13 11 13 16 17 20 25
11 13 14 16 19 21 23 26 26 27 30 30 32 34 35 36 36 35 32 29 27 27 26 24 23 21 17 11 7 4 4 3 3 6 7 5 6 9 13 18 22 24 26

GFSGL_850_spd_102.txt.gz
Wind_Speed
16 15 16 18 16 15 17 16 18 19 18 17 15 14 14 15 16 16 16 16 16 16 17 19 19 21 22 23 24 25 26 26 31 35 32 29 30 29 28 27 27 25 25
16 15 16 16 15 14 14 14 14 14 13 12 12 13 14 14 14 15 14 15 16 18 19 20 21 22 23 24 25 26 26 27 30 33 31 31 32 32 31 31 29 27 26
15 15 14 12 10 9 8 8 8 8 9 11 11 12 13 14 14 14 15 17 18 18 20 20 21 23 26 27 29 31 32 31 30 32 32 31 31 32 35 36 36 34 37
13 11 10 8 7 6 5 6 7 8 9 10 11 12 13 13 13 15 18 17 20 22 21 22 25 28 27 25 26 26 22 25 26 30 33 36 35 33 31 28 27 26 26
9 7 7 6 5 5 7 8 9 9 10 11 12 13 15 16 17 17 18 20 23 23 24 22 22 24 24 24 26 26 26 27 28 28 30 26 27 26 20 20 22 21 21
6 6 5 4 5 6 6 7 9 10 11 12 13 13 14 15 17 18 20 22 21 22 23 23 25 29 32 25 21 21 23 25 28 27 22 27 28 23 22 24 25 25 30
3 1 2 3 5 6 8 9 10 11 12 13 14 15 16 19 21 22 19 19 21 22 24 28 28 28 27 27 24 23 21 20 22 25 28 29 25 25 25 25 26 27 30
2 3 4 6 8 10 11 13 14 14 14 15 17 18 19 20 20 20 16 18 21 23 25 25 27 31 28 25 23 21 21 22 24 24 23 23 24 24 23 23 24 26 29
3 4 6 7 10 12 14 15 13 15 17 16 17 17 18 19 19 18 16 20 23 25 26 27 22 26 24 21 20 25 26 27 26 23 23 24 24 23 23 21 21 23 23
3 6 9 13 14 14 14 15 16 19 19 20 19 20 21 20 21 24 23 21 24 27 29 25 24 23 22 20 21 24 28 29 22 17 20 19 22 19 18 24 27 28 29
6 11 11 10 10 12 13 17 18 19 20 19 20 21 22 23 26 26 25 19 23 26 25 24 23 23 22 23 22 26 22 22 24 28 29 28 29 29 27 25 23 27 27
10 10 8 9 10 12 16 18 20 19 19 19 21 23 22 23 25 19 15 16 17 21 23 24 25 23 21 24 25 24 24 25 27 28 29 29 29 23 17 16 18 18 20
9 9 9 11 13 15 18 21 18 16 18 21 23 25 24 25 20 18 16 16 16 19 20 22 23 23 23 25 25 23 22 25 26 25 22 21 21 19 18 18 17 18 19
10 11 12 14 17 19 18 15 16 18 19 21 24 28 27 23 24 22 18 19 21 22 22 21 24 18 27 29 30 29 25 23 20 19 20 20 20 20 18 16 16 17 18
10 11 14 15 14 13 13 15 16 18 17 21 23 21 22 24 24 21 21 22 23 23 23 28 29 29 28 24 21 19 16 17 18 18 18 19 19 17 18 16 16 16 18
10 10 10 10 13 15 15 15 15 18 20 19 14 16 21 22 21 21 21 20 20 21 24 25 28 28 24 23 21 20 19 19 18 18 18 18 20 20 19 15 15 17 18
7 9 10 13 14 15 15 17 22 21 21 21 16 17 16 18 18 18 19 21 21 23 24 24 24 25 23 22 21 21 22 21 20 20 19 19 19 18 15 15 16 17 18
7 9 12 13 15 15 16 18 21 27 29 25 16 16 16 15 17 19 20 21 22 18 19 20 21 22 23 25 22 21 21 21 20 20 20 19 17 16 16 16 16 18 19
9 10 11 13 14 15 17 20 24 26 21 20 20 18 16 16 20 21 20 20 22 22 22 23 24 23 24 25 24 22 21 21 20 21 19 21 21 18 18 18 19 19 19
9 10 11 13 14 16 19 23 21 20 21 20 21 23 22 25 26 24 21 21 22 24 25 25 25 25 25 25 24 23 22 21 21 19 20 20 18 15 17 18 18 19 21
8 9 11 12 14 18 18 18 20 21 22 21 21 21 21 22 23 24 25 25 25 25 26 26 26 26 25 25 24 23 22 21 20 20 19 19 17 16 16 18 19 20 20
8 9 11 13 16 15 17 19 20 20 20 21 21 22 22 23 26 27 27 27 26 25 24 25 26 26 27 27 24 23 22 21 20 18 18 18 16 15 16 18 19 20 21
8 9 10 14 14 15 16 17 19 20 22 23 24 26 26 27 27 28 28 27 25 24 25 25 28 27 26 22 20 18 18 17 17 16 16 17 15 15 16 18 19 19 20
8 9 11 13 16 18 19 21 22 23 24 24 26 28 29 29 29 29 27 25 26 25 25 25 24 24 23 20 17 14 13 13 13 13 15 14 14 15 16 17 18 18 18
8 9 11 14 16 19 20 22 23 24 25 26 29 30 31 30 30 29 27 26 25 25 24 23 24 24 22 17 13 9 7 7 8 10 10 10 12 12 11 14 15 16 19
8 10 12 14 16 19 20 21 23 24 27 29 31 31 31 30 29 28 26 25 25 23 25 24 22 21 18 16 14 12 9 6 4 3 2 3 5 9 12 15 19 24 28

GFSGL_850_spd_105.txt.gz
Wind_Speed
11 10 11 12 13 12 13 13 14 17 17 17 17 17 15 15 16 16 16 16 16 16 17 17 17 18 19 19 21 22 23 24 29 32 30 27 29 29 28 27 26 25 24
13 13 12 12 11 12 13 13 14 16 17 16 14 13 14 14 14 14 15 15 15 16 17 18 18 19 19 20 22 24 25 26 30 35 34 32 30 28 27 28 27 29 29
15 16 18 16 14 13 12 12 12 12 11 11 11 12 13 13 14 15 15 15 17 19 17 19 18 20 22 24 27 28 27 26 26 27 28 27 29 29 32 33 32 29 28
14 13 12 11 9 8 8 7 7 7 8 9 11 12 13 14 14 14 16 18 18 18 20 22 21 23 24 26 22 24 26 29 27 27 29 29 28 26 25 25 25 17 18
9 8 7 6 4 3 3 5 6 8 9 10 11 13 14 15 16 17 17 17 19 21 22 22 23 22 23 21 22 28 25 24 26 27 28 27 28 23 23 22 24 25 22
6 5 4 2 1 3 4 6 7 9 10 11 12 13 13 14 15 15 17 19 22 24 25 25 26 24 25 32 27 23 26 27 27 28 28 26 26 26 24 23 23 25 26
5 4 2 1 2 4 5 7 9 10 11 12 13 14 16 17 19 21 22 21 25 25 25 26 27 27 28 28 30 27 25 23 22 23 27 27 27 26 25 25 26 26 26
1 1 2 3 6 8 10 11 12 12 12 14 15 17 18 18 19 20 18 18 21 23 25 26 27 29 29 25 27 26 21 20 21 24 24 26 25 24 23 25 27 27 26
2 3 4 6 9 11 13 13 12 13 16 17 17 18 19 19 19 19 19 22 25 26 26 27 27 28 25 25 22 24 25 24 23 25 23 23 25 23 24 18 16 16 23
2 4 8 11 13 12 12 12 14 18 19 20 20 19 19 19 21 23 24 26 27 26 27 27 26 23 23 20 22 24 26 29 29 24 19 20 21 20 20 21 23 26 27
6 10 12 11 11 12 13 15 18 20 23 20 20 20 21 23 25 24 24 20 19 23 26 27 25 22 23 22 22 23 29 24 20 21 23 28 31 31 31 32 29 28 27
10 11 11 11 11 12 15 17 20 23 21 19 21 23 23 23 23 25 18 17 18 21 25 25 24 22 21 22 25 25 25 24 27 26 27 29 28 29 27 24 22 21 22
11 11 11 12 13 16 19 21 20 18 20 22 23 26 27 26 24 18 18 17 16 18 22 24 23 24 23 24 22 27 25 30 32 34 34 31 25 23 21 22 20 21 22
12 12 12 15 17 18 17 17 18 20 21 23 25 28 28 26 25 22 19 20 21 22 22 21 22 23 26 28 29 29 24 24 22 20 19 19 21 23 21 20 20 18 20
11 12 13 14 14 15 16 17 18 19 20 23 25 23 26 27 26 22 22 22 23 23 23 26 27 28 30 31 29 25 24 21 19 19 20 20 21 21 20 18 19 18 19
9 10 11 12 14 15 17 16 15 18 21 23 23 19 23 21 20 20 19 19 20 21 23 26 29 28 27 26 25 24 21 20 20 20 20 20 20 20 20 19 18 17 18
8 9 11 13 15 17 18 19 22 21 24 24 18 15 16 19 19 19 19 21 22 23 26 25 26 26 25 23 24 24 25 23 22 20 21 21 20 20 20 18 15 15 17
9 10 11 13 15 16 17 20 23 25 24 22 15 16 18 16 18 19 20 21 22 20 21 23 23 23 23 23 23 25 25 23 22 21 20 20 20 19 17 16 15 15 16
8 8 10 12 14 16 18 20 19 21 22 22 21 18 17 17 22 20 21 20 22 23 23 24 24 25 25 26 25 25 25 24 23 22 21 21 19 17 20 19 18 16 16
7 8 10 11 13 16 16 19 21 22 23 23 22 22 22 25 25 23 21 22 23 24 24 25 24 24 25 25 24 24 24 24 22 21 20 20 18 19 18 15 16 17 17
6 7 9 11 14 14 17 19 21 21 23 22 21 23 21 22 24 24 25 24 24 24 24 24 25 25 26 25 26 26 24 23 22 21 20 19 18 18 16 15 16 17 18
5 7 9 11 13 15 17 17 19 21 21 23 25 23 22 22 24 25 25 24 22 22 23 25 26 25 25 24 23 22 21 19 18 17 17 16 16 17 14 14 16 18 19
5 7 9 11 13 15 17 19 19 20 22 22 23 24 24 25 25 25 25 23 24 23 23 23 24 25 24 23 21 19 16 15 14 13 13 14 15 16 14 15 16 18 19
5 6 9 11 13 16 17 18 17 18 21 23 25 24 24 24 25 25 23 24 24 22 24 25 22 22 24 22 18 15 11 9 8 10 11 13 14 13 14 16 17 18 20
5 7 10 11 14 16 18 18 19 21 23 24 26 25 24 22 22 22 23 24 24 23 22 21 22 22 22 22 21 18 14 10 7 6 7 8 8 9 10 12 13 13 15
5 8 10 12 14 17 18 18 20 21 22 23 25 25 24 23 22 23 24 26 22 22 18 18 19 24 25 25 24 24 22 19 16 13 10 9 10 12 15 16 18 21 25

GFSGL_850_spd_108.txt.gz
Wind_Speed
13 8 10 11 13 12 9 9 9 11 11 12 14 17 17 15 15 14 14 15 15 16 16 16 16 16 17 17 17 19 20 21 26 29 29 28 29 29 28 26 26 26 25
14 13 13 13 11 9 8 8 9 11 12 12 13 12 12 13 14 14 14 14 14 14 15 16 16 17 17 17 17 19 21 24 27 30 31 29 28 26 26 26 28 28 29
14 13 13 12 11 11 11 11 10 9 9 9 9 10 11 12 12 13 14 14 14 15 17 17 17 18 19 20 21 23 24 22 23 27 31 29 29 27 25 25 26 23 21
17 16 15 14 12 11 9 8 6 5 5 6 8 9 11 13 14 14 14 16 17 18 18 20 21 22 22 21 23 25 20 25 28 26 26 27 28 26 24 23 22 17 17
12 11 11 10 8 6 4 2 2 3 5 7 9 10 11 12 13 14 15 17 18 20 22 23 25 24 24 24 23 22 26 28 26 30 32 30 30 23 23 23 26 23 21
10 10 9 6 5 4 3 4 5 6 7 8 10 11 13 14 14 14 15 17 21 24 26 26 26 26 24 23 24 24 25 27 30 30 29 27 25 22 25 23 25 23 24
8 8 7 6 5 6 7 9 10 11 12 13 14 15 15 16 17 18 19 20 23 24 24 24 24 24 24 26 28 30 30 26 26 25 28 28 28 26 24 27 29 27 26
4 4 4 5 7 10 11 12 11 10 10 12 14 15 16 16 16 17 16 18 21 22 23 24 26 28 27 27 29 28 25 24 21 23 25 26 23 24 26 24 26 29 29
3 3 4 6 8 8 8 9 9 10 14 15 17 17 17 17 17 18 20 23 24 25 25 26 27 28 28 24 22 25 26 26 25 25 25 24 24 25 24 22 22 23 19
3 4 6 8 9 9 9 10 11 15 17 19 19 17 17 18 20 22 23 24 25 25 22 20 20 22 23 22 22 24 27 29 28 27 29 26 20 20 19 22 25 26 28
5 8 9 9 10 10 11 13 16 18 20 20 18 18 19 21 23 24 22 20 20 22 23 24 24 24 22 21 20 22 26 25 24 20 18 21 22 24 25 27 27 27 28
7 8 9 10 10 11 14 17 19 19 18 18 20 21 21 21 22 22 18 17 18 20 22 24 23 23 20 22 23 25 23 22 26 28 27 29 29 31 30 31 27 24 24
8 9 9 10 12 15 17 16 16 18 19 20 22 24 26 24 22 19 19 17 17 19 21 22 22 22 21 22 23 23 22 27 29 29 29 28 26 24 24 22 21 20 22
8 8 9 11 13 13 15 17 17 18 19 21 23 26 27 28 24 24 20 23 20 21 21 20 22 24 23 27 29 29 29 30 26 24 22 21 19 20 21 21 21 19 21
7 8 9 11 13 14 15 16 16 17 19 22 24 26 26 25 24 20 20 21 21 21 23 25 26 28 30 28 26 24 24 23 21 19 19 20 19 19 20 18 20 19 21
6 7 9 11 12 14 15 14 13 17 20 21 20 18 19 18 19 20 18 19 21 20 22 26 29 27 26 27 25 24 22 20 20 20 19 20 21 20 20 19 19 19 22
6 7 9 10 12 14 15 19 22 19 18 18 19 18 17 18 18 18 19 19 22 23 22 22 23 23 24 23 23 22 22 22 22 21 21 20 20 19 18 19 20 18 16
6 7 8 10 12 13 16 17 20 23 24 25 20 18 18 17 18 18 19 20 21 19 20 22 22 22 23 23 23 23 23 22 22 21 21 20 19 19 19 19 17 17 16
5 6 7 9 12 14 15 17 19 21 23 24 22 19 17 20 22 21 19 20 22 22 22 22 22 23 24 24 25 24 23 23 22 21 21 20 19 19 20 18 18 19 18
4 6 7 9 12 13 14 17 19 21 23 23 23 24 25 26 25 22 20 21 21 22 23 23 24 24 24 24 24 24 25 24 22 21 20 19 18 17 18 19 20 17 16
4 5 7 10 11 13 15 17 18 18 22 23 22 21 20 20 21 22 22 21 22 21 22 23 25 25 26 25 25 25 24 22 20 18 17 17 17 17 17 18 18 17 17
3 5 7 9 10 13 16 17 16 19 22 23 22 21 19 18 20 22 21 22 22 20 22 25 24 24 24 25 25 23 20 18 15 13 12 13 14 14 16 17 16 15 17
3 5 7 9 11 14 15 17 16 19 21 22 23 23 22 20 20 22 22 22 23 21 20 19 22 23 24 25 25 22 19 15 11 9 9 11 12 14 15 16 16 17 18
3 5 7 10 12 15 17 18 18 18 20 21 23 23 22 20 19 21 22 25 21 17 17 17 21 24 25 26 28 29 28 22 15 10 8 9 11 12 14 15 16 16 17
3 5 8 10 12 16 18 17 17 18 19 21 22 23 21 19 20 22 23 21 18 16 14 15 18 20 20 21 22 25 23 22 23 21 16 12 11 10 11 12 13 14 16
3 6 8 11 13 16 17 16 16 18 19 21 22 22 21 19 21 22 22 16 15 16 17 17 17 18 18 22 19 21 22 24 21 20 20 19 19 17 17 20 20 21 23

GFSGL_850_spd_111.txt.gz
Wind_Speed
10 12 10 8 9 11 7 7 9 9 9 11 13 15 15 17 16 16 15 15 15 16 16 15 15 16 16 17 17 18 20 20 21 20 27 28 29 28 27 25 25 25 27
14 15 14 15 13 9 10 9 8 7 8 8 10 11 12 12 12 13 14 14 14 14 15 15 16 17 17 16 17 18 20 21 23 22 22 25 27 27 27 27 26 26 28
16 16 16 14 12 11 10 10 9 8 8 8 7 8 9 10 12 13 13 13 14 15 16 17 17 17 17 18 19 20 20 20 21 19 22 23 28 27 26 27 24 23 23
20 19 18 17 14 12 11 8 6 5 3 3 5 7 9 11 12 14 14 15 16 18 19 19 18 19 20 20 20 21 21 22 20 25 27 25 26 27 26 26 20 17 19
15 14 14 12 11 9 7 4 2 1 3 6 8 10 12 14 14 15 16 17 18 19 21 21 22 22 22 22 23 21 20 22 24 27 25 23 23 21 20 22 21 23 19
11 12 10 7 5 3 2 2 3 5 7 9 10 11 12 13 15 15 16 17 20 23 24 25 25 26 24 22 23 22 22 24 25 25 26 26 28 23 20 21 22 23 21
10 10 8 6 4 3 3 5 6 7 8 9 10 12 13 14 15 16 16 17 21 24 25 25 25 24 23 23 24 27 28 29 28 27 27 29 25 21 20 21 21 22 23
10 9 7 4 2 3 4 4 5 6 7 9 11 13 14 15 16 17 18 20 22 23 24 25 27 28 27 26 26 27 28 25 23 22 23 24 23 25 26 24 26 28 31
7 5 2 2 4 4 4 5 7 8 11 14 15 16 16 15 15 17 18 22 24 26 25 24 24 25 23 21 21 24 25 27 24 25 24 24 24 25 25 24 18 13 17
2 1 3 3 4 4 5 6 8 11 13 16 15 13 13 15 17 20 21 21 23 23 22 20 17 18 19 19 21 23 25 24 22 23 23 22 25 27 27 22 22 18 17
1 2 3 3 3 4 6 9 11 13 14 13 13 14 16 17 19 20 18 16 19 21 22 23 22 20 20 20 19 20 24 23 20 18 19 21 22 23 22 23 26 28 26
2 3 3 4 5 7 9 11 11 11 12 14 15 16 16 17 18 20 14 15 15 19 22 22 21 20 19 21 21 22 21 22 26 25 26 27 25 23 23 25 28 29 30
3 4 4 5 7 8 8 10 10 12 13 15 17 19 21 22 20 18 12 13 14 16 18 19 19 18 18 20 22 21 20 25 28 29 29 29 26 24 21 19 19 19 19
4 4 4 5 6 8 10 10 12 13 15 18 20 22 22 20 18 15 19 20 19 18 18 21 20 18 23 25 27 26 24 23 25 26 25 21 20 21 21 18 18 17 20
2 3 3 5 7 8 9 11 13 14 17 18 19 19 19 17 16 18 17 17 18 20 21 24 26 27 26 24 22 21 20 18 18 17 17 17 16 18 19 17 16 15 18
2 2 3 5 7 8 9 9 11 13 14 15 18 17 15 15 16 16 17 17 18 20 22 23 22 22 22 21 21 20 18 18 16 16 17 17 17 18 19 17 16 16 17
1 2 3 5 7 8 10 13 15 14 14 17 16 15 14 14 15 15 17 18 18 18 18 19 19 19 19 20 20 20 21 19 17 17 17 17 17 17 17 17 17 17 18
1 1 3 5 7 9 10 13 15 19 21 21 17 16 13 14 16 15 15 17 16 14 16 18 19 20 21 21 22 22 22 21 20 18 18 17 16 17 16 17 17 16 16
1 1 3 5 7 9 11 13 14 17 19 22 20 16 15 17 16 15 15 16 18 19 18 19 20 22 22 23 23 22 22 21 19 18 19 19 18 17 17 17 17 17 14
1 1 3 5 7 8 11 12 14 16 19 21 19 18 20 18 17 17 16 17 18 16 18 21 21 19 21 21 23 23 21 19 18 16 15 15 14 15 16 16 15 17 18
2 1 3 5 6 8 11 12 13 16 18 19 19 17 16 15 16 18 18 18 19 17 17 16 18 20 21 23 24 25 22 19 15 13 12 11 12 13 14 14 15 17 16
2 0 2 4 6 9 11 13 14 15 15 18 19 18 16 15 15 18 19 20 15 13 12 15 20 21 22 24 26 27 27 22 17 13 10 10 11 12 12 13 15 16 15
3 0 2 4 7 9 12 13 13 13 14 17 18 19 17 16 16 18 20 18 12 10 11 14 18 18 19 20 22 27 23 24 24 20 14 11 10 11 13 14 15 16 15
3 0 3 5 8 10 12 12 12 12 14 17 18 18 17 16 17 18 17 12 11 11 11 14 15 17 21 20 17 21 22 26 21 20 22 20 16 12 9 9 11 12 13
3 0 3 5 8 11 13 12 11 12 14 15 17 17 16 15 16 16 18 10 10 14 13 14 15 17 18 20 16 16 17 19 21 22 20 20 18 19 18 17 18 18 18
3 1 3 6 9 11 13 11 11 12 14 14 17 17 17 15 15 17 17 14 11 13 14 16 16 17 18 19 20 21 21 22 23 22 23 23 22 22 22 23 23 24 25

GFSGL_850_spd_114.txt.gz
Wind_Speed
21 20 11 10 5 9 9 11 12 6 8 12 16 12 12 16 19 21 20 21 19 19 18 18 19 19 17 17 16 14 14 14 18 19 18 19 19 20 20 20 20 20 19
18 12 9 9 10 11 12 12 11 10 11 10 10 11 12 14 15 15 15 15 16 16 17 17 17 18 17 12 12 12 14 14 16 19 19 19 20 20 21 22 20 20 20
17 17 16 15 14 13 13 11 10 9 9 9 8 9 9 10 11 12 13 13 14 13 16 16 13 13 13 13 14 14 15 15 17 19 20 18 20 21 22 22 22 20 19
20 19 19 18 17 16 15 13 11 9 7 7 6 6 7 8 10 12 13 14 13 12 13 15 15 14 15 16 17 18 18 19 19 20 24 25 21 22 22 23 21 16 17
19 18 18 16 14 12 11 9 7 5 4 2 2 4 6 7 9 9 9 10 11 13 13 14 15 16 20 22 20 20 20 23 25 28 25 27 24 24 25 22 24 21 18
15 15 14 11 10 9 7 5 3 3 4 5 7 8 9 9 12 13 14 11 13 15 16 17 18 19 21 22 23 24 24 24 26 26 25 27 27 29 23 24 22 21 20
9 9 8 6 4 3 4 5 6 6 7 8 8 10 10 12 14 15 17 12 13 15 16 17 18 17 18 18 19 20 22 25 27 28 30 31 31 29 24 23 23 23 23
7 6 4 2 4 5 5 6 6 7 7 8 9 12 14 13 16 16 18 15 15 16 17 18 19 20 19 20 21 22 23 23 25 27 27 26 24 23 23 23 24 26 24
4 2 2 4 4 5 5 5 6 8 9 11 13 15 14 11 17 17 19 17 17 19 19 19 19 20 19 20 19 21 23 24 23 25 26 26 27 28 27 28 28 26 28
2 1 3 3 3 3 4 5 7 9 11 13 14 15 17 17 18 19 20 16 17 18 18 18 17 18 19 18 20 22 25 24 23 23 22 24 24 25 24 27 28 26 17
2 3 3 3 3 4 5 7 10 11 12 13 14 14 15 15 16 18 18 14 16 18 19 20 18 21 19 19 19 20 23 25 27 28 26 16 15 17 18 18 18 20 21
4 3 3 3 4 5 7 8 9 10 11 10 10 10 11 12 15 16 14 12 14 16 18 19 19 19 19 20 21 22 23 22 25 24 21 20 21 20 20 20 23 27 28
4 3 3 3 3 4 6 7 7 9 8 8 9 10 11 11 11 12 11 13 13 14 15 16 18 20 20 21 18 20 23 23 24 24 24 25 22 20 20 22 21 20 23
4 4 3 2 3 4 5 6 7 7 8 9 10 10 11 10 9 10 14 15 13 14 16 22 21 21 21 22 19 17 16 17 18 20 22 21 22 22 21 18 20 18 19
6 5 3 2 2 3 5 6 7 8 10 10 10 10 11 11 10 14 14 15 17 17 18 18 15 14 14 14 14 15 18 17 16 16 17 18 18 17 18 18 18 16 18
6 6 4 2 1 2 3 6 7 9 10 12 13 13 11 10 11 13 13 15 16 17 13 11 12 12 13 14 15 16 17 16 17 17 18 18 18 16 16 16 17 17 17
7 6 4 3 1 2 4 4 4 7 9 12 13 11 8 11 11 12 13 12 11 11 10 13 15 16 17 18 19 19 20 19 19 19 17 18 18 19 17 16 17 19 19
8 6 5 3 2 3 4 6 7 9 9 10 13 11 10 8 11 11 12 10 10 10 11 15 16 16 17 19 20 21 21 20 20 19 19 18 18 18 17 16 16 17 17
8 7 5 3 2 3 5 7 8 9 10 11 11 10 10 8 9 10 10 12 13 12 12 12 12 15 17 18 19 20 20 19 17 17 17 18 18 18 19 18 18 18 18
8 7 5 3 2 3 5 7 8 9 10 13 13 12 14 13 11 12 13 14 11 10 9 10 14 15 17 19 22 24 25 22 18 15 14 14 14 15 15 16 16 16 16
9 7 5 2 2 4 5 7 8 8 10 11 11 11 12 12 12 13 13 14 8 6 7 11 14 13 16 17 20 24 21 23 23 18 13 11 11 13 14 15 16 16 17
9 7 5 3 2 4 6 8 8 9 8 10 11 12 11 10 11 13 14 12 6 6 8 11 14 15 18 19 17 19 20 24 23 21 20 15 11 11 12 13 14 15 17
10 7 5 3 3 5 7 8 6 6 7 10 10 12 12 10 12 13 14 9 6 8 9 11 14 16 18 19 17 15 19 20 21 23 22 21 20 17 13 11 12 14 14
10 7 4 3 3 5 7 7 5 7 8 8 10 11 12 10 11 12 13 11 10 10 10 12 14 17 18 19 19 19 19 20 21 22 21 21 20 20 20 19 16 15 15
10 7 4 2 4 6 7 7 6 6 7 7 10 11 12 12 11 12 13 14 13 13 13 15 17 18 19 21 22 22 22 22 22 22 24 23 22 22 21 21 23 24 24
10 7 4 3 4 6 8 7 5 6 7 8 9 11 13 13 12 12 14 15 15 16 18 18 20 22 23 23 24 25 25 25 25 25 26 26 25 23 23 21 21 22 24

GFSGL_850_spd_120.txt.gz
Wind_Speed
21 18 17 14 11 9 7 7 3 0 1 2 3 8 11 14 16 16 14 13 12 12 14 15 15 19 15 19 17 15 22 30 32 30 23 26 28 28 23 20 21 24 28
16 15 14 11 12 13 12 11 13 10 9 7 5 8 10 9 10 12 14 16 12 11 11 11 12 12 14 14 15 24 28 21 18 21 22 25 26 27 29 30 27 23 26
13 16 17 18 16 18 16 15 15 13 15 14 11 8 6 5 6 4 3 2 5 7 8 12 13 15 14 13 14 13 14 15 19 23 26 26 26 25 28 29 29 25 24
18 20 20 19 19 19 17 15 15 13 13 11 9 7 6 6 6 7 7 8 8 8 8 9 11 15 17 17 18 17 20 20 20 18 21 24 24 25 29 34 35 24 26
18 18 18 16 15 14 12 12 11 9 8 7 6 4 4 5 6 7 9 10 11 11 11 12 13 12 11 13 18 20 23 25 28 30 31 31 33 35 33 31 26 28 29
15 14 13 11 10 9 8 8 7 5 4 2 0 1 4 8 8 9 10 10 12 13 13 15 17 20 21 20 15 16 20 23 22 25 28 29 31 31 30 24 23 25 26
10 10 9 8 7 6 7 7 6 5 5 4 2 2 4 8 9 10 10 9 9 9 10 13 15 15 16 19 20 18 20 22 20 22 25 25 27 28 28 30 33 33 35
9 7 6 5 6 6 5 5 4 4 2 1 4 5 4 7 9 10 10 9 8 8 9 10 12 14 15 12 15 21 23 23 24 24 26 29 31 32 28 29 30 29 29
8 6 4 3 3 3 3 3 3 3 3 2 4 4 5 6 7 10 14 11 8 6 8 11 14 19 19 17 19 21 23 24 22 21 20 22 23 23 23 25 25 22 23
7 5 4 3 2 2 2 2 1 2 2 2 3 2 4 8 9 14 17 14 10 10 11 11 13 17 13 14 16 19 23 23 22 21 25 26 25 28 26 28 30 27 23
6 4 3 3 3 2 2 2 2 3 2 3 5 6 6 8 12 13 17 14 13 15 16 15 15 14 14 15 18 22 24 25 26 23 22 27 27 26 23 20 19 21 24
7 5 5 3 3 2 2 2 3 3 3 4 5 5 7 11 13 12 10 11 13 15 15 15 15 18 18 19 20 20 19 21 26 29 30 25 21 21 20 18 19 20 21
8 6 6 5 4 3 3 2 2 3 4 5 6 8 10 11 11 12 15 12 12 12 14 15 16 19 18 17 16 15 18 21 21 23 22 22 22 23 23 24 25 27 30
9 8 7 6 5 4 3 3 2 3 5 6 8 10 12 12 13 13 10 12 13 15 16 18 20 14 11 14 16 16 16 18 18 21 23 23 22 21 20 19 20 18 18
11 10 9 7 7 5 4 3 5 4 6 7 9 12 14 13 10 11 11 14 16 16 16 14 12 13 12 13 15 17 18 19 21 21 22 21 20 20 20 19 19 19 19
13 11 11 9 8 6 5 5 4 6 7 7 9 12 13 11 8 10 12 13 11 10 13 12 11 12 13 15 16 20 21 22 22 20 21 22 22 21 20 18 17 18 20
15 13 12 10 9 7 6 6 7 7 8 9 11 13 13 9 7 11 10 10 10 11 8 8 9 10 11 13 14 17 20 20 21 23 23 20 21 21 20 20 18 18 19
16 15 12 13 10 8 7 7 7 7 7 9 12 14 15 9 9 8 8 10 10 7 5 4 6 11 13 15 14 16 18 18 21 22 24 23 20 19 19 19 19 20 20
18 15 14 12 11 9 7 7 7 7 7 8 11 12 12 9 8 6 7 9 9 8 3 4 7 9 11 12 16 17 16 18 19 21 21 23 24 22 20 18 18 18 18
16 15 15 13 10 9 8 7 7 7 7 9 11 12 12 11 9 8 7 6 8 5 6 8 10 11 12 14 15 17 18 17 18 20 21 22 23 23 24 22 19 18 18
17 16 15 13 10 9 8 7 7 8 9 7 10 12 8 9 9 9 8 6 8 8 9 10 14 16 16 16 18 20 20 19 20 22 24 24 23 23 22 24 24 22 18
16 15 15 13 11 8 8 7 8 8 7 6 10 13 8 9 9 9 8 7 7 10 11 13 14 15 17 18 19 21 22 23 24 23 27 29 27 27 26 23 23 24 23
17 16 16 14 11 9 7 7 8 7 7 9 11 11 9 9 10 9 9 8 9 13 13 16 17 18 19 21 22 23 25 24 24 26 31 31 29 29 28 28 27 25 23
16 16 15 13 10 8 8 8 7 8 9 9 9 10 10 10 10 10 11 9 10 14 15 16 17 19 22 22 22 23 22 22 24 27 29 29 29 28 27 27 24 24 25
17 16 15 11 9 8 7 8 9 10 10 9 8 9 10 9 11 12 11 11 13 15 14 15 16 17 18 18 19 19 20 23 23 23 26 29 30 28 25 24 24 25 25
18 16 14 10 9 8 7 8 9 10 10 9 9 9 10 9 11 11 12 13 15 15 12 13 14 15 17 18 19 21 23 23 26 27 28 28 29 26 26 26 26 26 26

GFSGL_850_spd_123.txt.gz
Wind_Speed
19 16 18 17 16 14 13 11 9 7 6 8 8 9 8 9 9 10 12 14 13 12 10 8 10 11 14 20 20 15 11 14 22 24 21 18 18 21 24 25 26 27 27
19 18 16 13 10 9 10 9 7 8 9 8 9 9 10 9 11 12 12 11 10 11 15 13 12 11 8 8 9 12 16 13 15 18 19 20 21 21 24 26 27 28 28
13 14 16 16 15 16 16 16 17 18 19 16 14 12 12 11 10 8 8 7 5 4 3 4 6 8 10 11 11 12 13 14 14 18 21 22 22 22 23 24 25 28 33
19 19 21 20 18 18 17 16 15 15 15 15 14 11 9 10 9 9 10 10 10 9 9 9 9 9 8 10 12 14 17 19 21 23 26 27 26 25 27 30 33 33 31
21 20 20 18 16 14 13 13 13 11 11 11 10 9 9 7 6 6 6 7 7 8 10 11 12 12 12 11 10 13 15 17 21 24 26 25 24 25 26 26 27 26 27
16 16 15 13 12 11 10 10 8 8 7 6 6 5 5 5 5 5 5 6 8 9 12 13 13 14 16 19 22 22 15 14 17 19 21 23 25 26 24 24 24 27 32
14 14 12 10 9 8 7 7 6 6 4 4 4 2 2 3 2 3 3 4 5 6 10 13 13 14 15 16 18 20 19 18 21 22 25 26 27 28 28 30 32 32 29
13 12 9 7 6 6 5 6 6 5 3 2 1 1 1 3 5 5 4 2 4 6 9 10 12 12 12 14 14 17 16 17 19 19 21 21 21 23 23 23 24 25 25
9 7 5 4 5 5 6 5 4 3 1 0 1 2 3 3 6 10 8 3 2 5 7 8 12 14 14 8 11 14 15 15 15 16 17 17 19 22 24 26 27 27 26
10 7 6 4 4 5 5 5 4 3 2 1 1 1 2 1 4 8 11 8 3 3 5 6 6 6 6 8 11 15 17 20 21 19 16 16 19 21 22 20 19 22 22
10 7 6 4 3 3 3 2 2 2 2 2 1 1 1 3 4 3 7 9 9 8 9 7 6 8 9 10 11 15 15 17 19 22 24 26 26 23 19 17 17 19 20
10 7 5 4 4 4 3 2 2 2 2 2 1 1 2 4 3 2 5 7 6 7 7 7 8 7 10 9 8 8 11 17 20 20 20 20 19 18 18 18 18 21 24
11 8 6 5 5 4 3 2 2 1 1 1 2 3 5 8 8 7 8 6 4 7 8 7 11 9 7 8 10 12 14 13 16 18 19 19 18 19 19 18 18 15 16
13 10 7 7 6 5 4 3 2 2 2 3 4 5 7 9 9 7 4 7 8 9 10 10 7 7 8 7 7 11 14 16 18 18 19 17 18 18 17 16 17 17 18
15 11 9 8 7 7 5 4 3 3 4 5 6 7 8 9 7 5 6 9 10 8 9 8 5 5 7 8 10 13 15 16 19 20 22 23 21 19 16 15 15 15 16
17 14 10 10 9 8 7 6 5 5 5 6 7 8 8 9 5 4 8 7 4 6 8 5 5 6 7 9 10 12 15 16 18 21 21 23 25 23 21 18 17 17 18
19 15 12 12 11 10 9 8 6 6 7 8 9 9 9 10 6 6 8 6 5 6 3 3 3 5 8 10 9 11 13 13 16 18 21 22 22 24 24 22 18 17 18
20 16 13 12 12 11 10 8 7 7 8 8 8 9 13 13 7 6 5 8 8 6 4 3 3 5 7 8 9 12 13 14 15 17 19 20 21 22 22 25 24 20 19
22 18 15 13 12 11 10 9 8 8 8 8 8 10 11 11 6 5 6 6 6 7 4 6 7 7 8 9 11 13 15 17 16 17 20 21 20 21 23 22 23 24 21
23 18 15 14 14 12 11 9 8 8 8 8 8 9 11 10 7 6 5 4 5 7 7 7 9 12 14 13 13 15 17 19 19 20 22 22 23 27 26 27 24 23 23
24 20 16 15 14 12 11 10 9 8 8 9 9 9 11 11 9 8 6 5 5 6 9 10 11 13 15 14 15 17 18 20 22 22 22 23 24 32 26 26 24 23 24
23 19 17 16 15 12 10 10 8 8 8 9 9 9 12 12 8 9 8 7 8 8 11 12 14 15 15 16 18 20 21 23 24 23 23 24 29 30 28 27 27 27 26
21 19 18 17 14 12 11 10 8 8 8 8 8 10 11 11 9 9 9 9 10 9 12 13 14 16 17 18 19 19 21 22 21 20 25 29 28 27 27 29 26 25 25
22 20 18 17 14 12 11 9 8 8 8 9 10 11 11 11 9 9 9 9 10 12 13 14 15 16 16 15 15 16 18 19 22 25 24 26 30 30 30 30 25 25 24
23 20 19 16 14 12 10 9 8 8 8 8 10 11 11 11 9 9 8 9 11 13 11 10 12 12 13 14 16 18 19 21 22 24 25 28 31 32 29 28 26 26 26
22 19 17 16 14 11 9 8 8 7 8 9 10 11 12 13 10 9 9 10 12 11 11 10 10 12 15 16 18 20 22 22 24 25 27 29 29 29 27 26 24 24 25

GFSGL_850_spd_126.txt.gz
Wind_Speed
14 16 16 16 15 15 15 15 15 12 10 9 10 11 12 13 15 18 19 17 15 14 14 14 12 9 9 11 14 16 11 11 13 16 19 20 19 19 20 21 21 23 24
17 16 18 18 16 15 13 12 11 10 10 10 11 12 11 10 10 9 9 10 11 13 14 13 12 13 14 13 9 10 12 16 17 17 18 18 19 20 21 21 21 22 22
13 16 16 15 15 15 13 12 12 13 15 14 14 12 10 10 10 11 13 14 14 15 12 9 9 9 9 11 12 12 14 14 14 15 17 20 22 21 21 21 21 24 27
15 17 19 18 17 16 16 15 15 15 15 16 13 12 12 10 9 10 9 9 10 10 10 10 10 12 13 13 14 14 14 14 17 19 21 24 26 25 25 25 27 28 30
17 18 19 18 16 15 14 14 14 14 14 14 14 12 11 10 10 9 10 9 11 11 12 12 12 13 12 12 15 14 13 16 19 20 22 23 23 22 22 26 27 25 27
16 15 14 13 12 12 11 11 10 11 11 10 9 9 9 9 9 10 11 13 14 14 14 14 16 16 16 15 16 18 19 17 19 22 24 24 25 26 25 25 25 26 29
12 13 13 11 11 12 9 8 9 9 8 8 7 6 6 5 6 7 8 9 11 11 11 13 14 14 15 14 15 15 16 16 16 17 21 22 23 19 20 21 22 20 22
13 13 12 9 6 6 8 7 7 8 7 5 3 3 3 3 5 3 5 8 9 10 11 12 13 12 11 14 16 15 12 9 8 11 14 16 15 14 20 20 23 24 25
12 10 7 7 8 8 8 7 6 3 3 2 3 3 2 2 3 1 2 4 7 8 9 11 13 14 11 5 7 8 10 10 11 15 16 14 15 18 21 23 24 26 28
13 10 8 7 6 6 5 4 3 3 3 3 4 3 3 3 7 8 4 2 4 7 7 8 8 5 1 3 9 8 13 14 12 15 17 20 22 22 23 22 20 19 19
14 11 9 7 6 7 7 6 6 6 6 5 5 4 3 3 6 6 3 5 3 5 2 2 3 2 3 8 12 10 7 13 14 17 19 17 14 13 14 15 15 17 19
15 12 10 9 8 9 8 8 7 7 7 7 6 6 5 4 3 4 4 3 5 5 5 4 5 6 7 9 8 6 10 9 7 8 11 13 13 13 12 12 14 15 16
17 15 12 11 11 10 9 9 9 9 8 8 7 7 6 5 6 8 8 5 4 7 8 7 8 6 7 6 5 1 4 5 8 11 14 14 14 14 13 13 12 13 16
18 17 14 12 12 12 11 9 9 8 8 7 7 7 6 6 6 6 6 5 5 8 6 6 6 4 2 3 3 3 6 7 11 12 14 15 18 18 16 13 14 14 16
19 17 15 13 13 12 11 9 9 8 7 6 7 6 6 6 5 1 6 7 8 4 6 7 3 3 3 2 2 3 5 6 9 13 16 18 19 21 20 20 16 15 16
22 20 18 15 14 13 13 12 10 9 7 6 7 6 6 6 4 3 7 7 4 6 7 4 2 2 1 1 1 2 4 6 9 11 13 16 17 19 20 21 22 22 20
24 21 19 16 15 15 14 12 10 9 7 6 6 6 5 7 4 4 6 5 3 5 5 4 4 4 4 1 3 6 7 8 10 12 14 14 16 17 18 20 21 21 23
25 21 20 17 15 15 14 12 11 9 8 7 7 6 7 8 5 4 5 5 6 6 7 6 6 7 6 6 5 9 11 11 13 15 15 17 18 19 20 21 21 22 21
27 25 21 18 15 14 14 13 11 10 9 8 7 7 7 9 8 4 6 7 6 6 7 7 9 11 12 11 10 11 12 14 16 17 17 19 20 20 22 28 24 19 20
29 24 21 18 17 16 15 14 12 11 10 9 8 8 8 9 9 6 6 7 8 7 8 9 10 12 14 16 13 13 15 16 17 19 21 21 20 20 22 28 22 22 21
30 27 23 20 18 16 15 14 12 11 10 9 8 9 9 8 11 8 7 7 9 11 10 11 13 13 15 15 13 15 17 18 18 19 19 19 18 18 26 25 23 25 24
30 28 24 20 17 18 16 14 13 11 10 9 9 9 9 9 10 9 7 8 10 11 11 12 13 13 14 17 18 19 19 19 19 18 17 18 20 27 24 26 26 27 24
30 28 23 18 19 18 17 15 13 11 10 9 9 9 9 9 9 9 8 8 10 11 13 15 16 16 14 14 14 14 16 17 17 18 21 25 25 26 26 28 29 26 26
29 27 22 20 21 19 17 14 12 11 10 10 9 9 9 9 10 10 9 8 8 10 12 14 14 13 13 12 12 14 16 17 19 22 23 25 27 27 28 27 28 26 26
29 26 19 22 21 19 16 14 11 10 10 9 9 10 10 10 10 11 9 9 9 10 9 10 11 11 11 13 15 17 19 21 23 24 25 27 29 29 27 26 26 25 23
29 21 22 21 19 17 15 12 11 10 9 9 10 10 11 11 11 12 9 8 7 7 8 10 10 11 12 14 16 17 19 19 19 20 22 24 25 25 25 25 23 21 22

GFSGL_850_spd_132.txt.gz
Wind_Speed
13 15 12 12 11 11 13 10 7 7 9 11 11 15 19 21 21 21 22 24 25 24 21 21 23 22 21 14 14 13 13 14 14 16 14 14 17 18 19 21 23 22 22
16 16 15 12 10 9 8 7 9 10 9 9 12 13 15 16 18 20 22 23 24 25 25 22 17 12 13 13 13 13 13 16 13 13 15 17 20 21 20 20 20 21 23
15 18 19 17 19 15 11 11 8 7 7 10 10 11 11 12 13 13 13 11 10 9 8 9 8 9 11 12 13 13 11 11 13 16 19 19 18 19 21 21 20 20 20
12 12 11 12 12 11 12 12 10 8 8 9 9 9 9 8 7 7 6 6 5 5 5 6 8 9 10 10 10 11 14 15 15 14 15 18 20 20 21 23 24 23 23
15 16 16 16 16 15 15 14 13 12 9 8 7 7 6 6 5 5 5 4 5 7 8 9 8 9 10 12 13 15 15 14 15 15 16 18 19 20 21 21 22 22 22
15 15 15 14 14 13 12 11 11 11 10 8 7 6 6 6 4 3 4 5 5 7 8 10 10 11 12 12 13 14 13 14 15 15 16 17 18 17 18 17 18 21 27
14 13 13 12 11 10 10 9 9 8 8 6 4 4 6 4 5 6 8 9 10 12 13 13 13 13 14 13 13 13 12 13 15 17 15 15 16 16 18 18 18 20 24
13 12 11 9 7 7 6 5 4 4 3 2 3 5 5 3 4 5 6 7 8 9 9 10 11 11 12 12 11 12 12 11 10 12 14 14 16 14 18 21 24 29 30
12 11 10 7 6 5 5 5 5 5 4 4 5 4 3 3 2 3 4 6 7 8 9 9 10 10 9 8 9 9 7 9 11 14 15 15 18 19 23 26 22 20 22
11 9 8 6 5 4 5 5 5 5 5 5 4 3 3 3 4 4 5 5 6 7 8 8 7 5 4 4 8 6 8 11 13 10 10 14 17 15 14 15 15 17 18
12 10 8 7 6 5 6 6 5 5 5 5 5 5 4 3 4 6 5 3 5 5 5 4 4 5 5 7 8 8 12 9 10 12 11 11 10 10 11 12 14 15 16
15 13 11 9 7 7 7 8 7 7 6 6 6 6 5 5 5 5 6 6 6 6 5 6 6 7 12 11 9 7 13 11 13 9 8 7 7 7 7 9 11 12 15
17 15 13 11 9 8 8 8 8 8 8 8 7 7 7 7 7 8 8 9 7 7 6 7 6 7 8 7 7 5 9 10 7 6 7 10 11 12 13 13 12 12 12
20 18 17 15 13 11 11 11 10 9 9 8 8 8 8 8 9 9 10 9 8 10 11 9 9 9 7 6 7 6 3 4 5 7 9 9 10 12 14 16 18 20 20
23 21 20 18 16 14 13 12 10 10 9 8 8 9 9 9 9 11 10 7 7 8 10 9 11 6 3 4 5 5 6 6 7 9 11 12 14 14 14 15 17 20 23
28 26 24 22 20 18 16 15 15 14 13 12 10 10 10 10 11 11 9 7 9 10 9 10 12 8 6 8 8 9 9 9 9 10 10 12 14 16 19 18 18 19 24
31 28 27 25 23 21 19 18 17 15 14 12 12 11 10 11 11 12 9 9 10 9 10 10 11 9 9 10 11 10 10 10 11 11 13 14 17 19 20 21 20 18 21
33 30 29 27 24 22 20 18 17 16 14 11 11 11 10 10 11 11 8 9 9 11 12 11 10 11 11 12 12 13 13 13 14 13 15 16 18 20 21 20 19 20 20
35 34 31 28 25 23 21 19 18 17 15 13 13 12 11 11 10 10 7 10 10 12 11 10 10 10 11 13 14 15 17 16 16 16 16 19 20 23 19 16 20 16 24
35 35 32 30 28 26 24 22 20 19 18 15 14 13 13 12 12 10 11 12 11 11 11 11 13 13 13 14 15 16 14 14 15 18 20 21 19 17 17 19 20 24 27
37 36 34 33 31 27 26 24 21 18 18 15 14 13 13 13 12 12 11 11 11 10 11 11 12 13 14 13 14 15 16 17 19 18 16 15 15 16 17 21 24 23 23
37 38 36 34 32 29 27 23 19 17 17 16 15 14 14 15 13 12 11 11 10 10 11 12 13 14 16 15 14 13 13 13 13 13 14 15 17 19 21 25 25 24 25
35 38 36 34 33 29 26 23 19 17 17 17 15 14 15 15 12 12 12 12 11 12 11 11 13 15 15 15 14 11 12 12 12 14 15 18 22 26 25 22 22 23 24
30 32 34 34 33 29 25 22 17 16 18 17 15 14 14 14 13 13 12 12 12 13 13 13 11 11 10 9 9 10 11 13 15 16 18 19 19 22 24 25 25 25 24
27 30 34 34 31 27 24 20 16 18 18 16 14 14 13 13 14 13 12 12 13 12 9 8 9 9 8 8 9 11 13 13 15 14 15 18 21 22 23 24 24 24 23
26 28 29 29 25 23 22 20 16 19 17 15 13 12 12 12 13 13 12 12 13 12 9 10 12 11 10 9 10 11 12 13 13 13 15 17 18 20 22 22 22 22 23

GFSGL_850_spd_135.txt.gz
Wind_Speed
14 15 17 14 15 17 18 15 12 11 8 9 12 15 16 19 19 18 19 19 21 22 22 24 19 19 25 22 23 17 13 13 13 11 11 12 15 15 17 21 24 26 26
13 13 17 18 17 18 15 12 11 12 11 9 10 11 13 16 16 18 19 20 21 20 19 20 22 20 19 14 9 9 11 11 11 13 12 13 15 18 22 23 22 23 23
13 12 12 15 15 18 20 20 17 14 13 13 11 9 11 13 17 19 20 21 20 20 18 15 10 9 10 10 10 9 11 11 11 11 14 17 18 18 19 20 21 21 21
16 17 17 16 15 16 16 15 14 11 12 14 13 13 12 12 12 11 11 11 10 8 8 7 7 8 9 9 10 9 10 10 13 14 14 15 16 17 19 19 19 17 17
12 14 14 14 14 14 14 14 14 13 13 13 14 14 11 9 8 7 7 7 7 7 8 8 8 8 7 8 9 10 12 12 12 12 13 14 14 16 16 16 19 20 20
15 16 16 16 14 14 14 12 12 15 14 12 11 10 10 9 8 6 6 6 5 5 5 5 6 7 8 10 11 12 12 11 11 11 11 13 13 12 14 16 18 19 15
18 17 16 15 14 14 14 14 14 14 13 11 9 7 6 4 3 4 5 6 6 7 8 9 10 10 11 11 12 12 12 12 12 12 11 11 11 12 15 13 14 18 18
17 17 15 13 12 13 13 13 12 11 9 7 6 4 3 2 2 4 5 6 6 8 9 9 10 11 11 11 11 11 11 9 9 10 10 10 10 12 16 19 21 23 21
15 14 13 11 11 11 11 10 10 9 8 7 5 4 3 2 1 2 2 4 4 6 7 8 9 9 9 8 8 8 7 6 6 10 14 14 15 15 18 17 16 16 17
15 13 12 11 9 9 9 9 9 7 5 4 3 3 2 1 1 1 2 3 3 4 6 7 7 6 5 5 7 7 7 8 8 11 11 12 12 11 12 12 12 14 15
17 15 13 12 10 9 9 9 7 6 5 4 4 3 2 1 2 3 3 4 5 5 5 4 3 5 4 5 5 8 9 8 8 8 8 7 6 6 7 8 10 11 13
19 17 15 13 11 9 9 8 7 6 5 5 4 3 3 2 2 4 4 5 4 4 3 5 6 6 8 9 7 9 11 7 9 8 6 5 5 4 4 7 10 11 12
21 19 17 15 13 11 9 9 8 7 7 6 5 4 3 3 4 4 5 6 6 3 3 4 6 7 8 8 9 8 10 8 5 3 4 6 7 8 10 12 11 13 15
23 22 20 18 16 14 12 11 9 8 8 7 6 5 5 5 6 6 7 8 7 7 7 8 8 8 8 5 5 8 6 4 4 6 7 8 9 10 11 12 14 16 19
24 23 22 20 17 14 11 9 8 9 9 8 8 8 7 7 7 8 8 8 8 7 7 7 7 11 5 4 4 5 6 7 8 8 10 11 12 12 13 15 16 17 18
27 27 24 21 19 17 14 13 12 11 11 11 10 8 8 8 8 8 8 6 7 8 7 7 9 10 7 6 7 8 9 10 10 11 11 12 14 16 18 17 18 19 18
30 28 26 25 23 21 19 17 15 14 13 11 10 9 8 8 8 8 9 8 9 8 7 8 10 9 8 9 9 10 9 10 12 13 14 14 15 16 18 18 18 17 16
31 29 28 26 25 23 20 18 16 15 13 11 10 9 8 8 8 9 9 8 9 10 10 9 10 8 8 9 9 10 11 12 13 14 13 14 14 17 20 22 17 14 18
34 33 31 29 27 24 22 20 18 16 15 14 12 11 9 9 8 8 8 7 8 10 10 9 9 8 8 8 11 11 11 12 14 14 14 17 20 22 22 20 16 16 18
35 33 32 31 30 28 26 24 22 20 17 17 15 13 11 11 9 8 9 9 10 10 10 9 9 9 11 13 15 15 16 15 15 16 17 20 21 17 17 16 17 20 22
34 35 35 33 32 30 29 27 24 20 18 17 14 13 12 12 11 11 11 11 10 10 8 8 8 9 10 11 12 13 13 14 13 13 13 13 13 14 15 17 19 23 24
35 36 36 34 34 33 31 28 24 21 17 16 14 14 13 14 13 12 11 11 10 9 9 9 10 11 10 13 15 15 12 10 11 11 12 14 14 15 18 21 22 19 20
31 34 36 36 35 33 32 27 23 19 16 15 13 14 15 14 12 12 11 11 10 10 10 11 10 10 11 12 12 11 9 9 11 12 14 15 18 19 16 19 21 22 21
27 31 32 34 35 34 31 26 22 17 16 13 13 16 15 14 13 12 12 11 10 10 10 10 10 7 8 8 6 7 8 10 12 13 14 14 16 18 19 21 21 21 21
24 27 29 30 32 30 28 24 19 18 17 14 15 17 14 14 13 13 12 11 10 10 9 7 7 7 8 7 7 8 9 11 12 13 13 15 17 17 18 18 19 20 20
22 24 24 24 25 26 26 25 22 21 18 15 18 15 13 12 12 12 12 11 11 10 9 8 9 9 9 9 9 10 11 11 12 12 14 16 18 18 19 21 22 22 22

GFSGL_850_spd_138.txt.gz
Wind_Speed
13 16 17 15 12 12 12 13 12 11 11 10 13 18 21 24 23 17 14 15 15 15 16 18 19 20 24 24 21 24 25 20 16 13 13 13 12 14 15 17 21 23 25
13 14 14 18 17 18 17 17 16 15 15 12 11 11 13 16 19 22 21 19 19 19 19 22 24 22 20 22 23 22 11 9 10 11 12 13 14 15 17 21 23 22 23
13 15 15 13 12 12 13 14 14 12 11 11 11 12 13 12 13 13 14 15 18 19 18 18 19 20 18 13 8 9 10 9 10 10 11 13 15 16 18 19 19 19 19
13 13 13 13 12 13 14 15 15 13 12 11 11 11 13 13 13 14 14 14 15 16 18 16 13 10 8 9 9 9 9 10 10 12 12 14 14 15 15 14 13 12 13
17 16 16 15 14 14 14 14 14 13 12 11 10 10 8 8 9 9 9 10 10 9 10 10 9 9 10 10 10 10 10 12 12 11 10 10 7 6 8 10 10 10 9
13 15 17 18 18 17 17 17 16 16 14 12 11 10 11 10 9 9 9 8 9 8 9 9 9 10 9 9 10 11 11 10 10 8 8 8 6 5 6 6 7 8 10
17 18 18 18 17 16 15 15 15 15 13 12 11 10 10 10 9 8 8 8 8 8 9 9 9 9 10 7 9 9 11 11 11 8 6 6 7 6 9 7 7 9 10
20 19 18 16 15 15 15 14 13 12 12 11 10 9 8 7 7 7 6 6 8 9 10 11 10 11 13 11 8 7 6 6 6 5 6 9 8 9 8 8 9 10 8
18 17 16 15 14 14 14 13 12 12 11 10 9 7 5 6 5 4 4 5 6 7 8 8 10 10 12 11 8 6 4 4 9 9 11 13 11 12 10 8 6 7 6
21 19 18 16 15 14 14 13 14 13 12 11 9 7 5 4 4 4 4 4 4 5 6 8 9 9 9 7 5 7 6 8 9 10 7 8 7 7 6 5 5 6 9
21 20 18 16 15 15 15 15 14 13 12 11 9 8 6 4 4 2 2 2 2 2 2 2 3 7 5 5 6 7 8 10 10 8 5 2 1 2 3 4 5 6 9
23 21 19 18 17 16 15 15 14 12 10 9 8 7 5 4 2 1 2 3 3 1 3 2 3 7 7 9 8 9 9 9 8 4 3 2 1 2 3 4 6 8 8
26 23 21 19 16 15 15 15 14 13 12 11 10 9 8 7 6 5 4 4 5 1 3 5 4 8 10 11 12 12 13 10 6 4 3 3 4 5 7 9 8 8 11
28 26 24 22 20 18 17 16 15 15 14 13 12 11 9 8 7 7 6 6 6 4 6 6 7 7 8 7 5 12 12 8 4 4 7 8 9 9 10 10 11 13 14
29 28 26 24 22 21 19 17 16 14 13 12 12 11 10 9 8 8 7 7 6 7 6 6 6 4 4 4 6 9 8 7 7 9 9 9 8 9 10 11 12 13 14
32 31 30 28 26 24 22 19 18 17 15 14 12 11 9 9 8 8 8 9 9 9 4 6 6 6 6 6 7 8 8 8 9 9 9 10 11 11 11 12 11 15 17
34 32 31 30 29 27 25 23 20 18 16 14 13 12 10 9 9 8 8 8 9 9 5 6 6 7 8 7 8 9 8 8 8 10 11 13 12 11 12 13 15 17 14
35 33 31 30 29 28 26 23 20 18 16 15 14 13 11 10 9 8 8 8 8 8 7 7 7 7 7 7 8 8 8 9 10 11 12 11 12 13 14 15 16 16 13
36 36 33 31 30 28 26 24 22 19 17 15 14 13 11 10 8 8 8 7 8 8 8 7 7 7 8 9 10 11 12 10 10 12 12 12 13 15 15 15 14 12 15
37 35 33 33 32 31 29 27 25 22 20 18 16 14 11 10 9 8 7 7 8 9 9 8 8 8 9 10 10 11 11 12 12 13 14 14 14 14 12 12 13 16 18
36 36 35 35 35 32 31 30 28 24 21 19 16 14 10 10 10 11 11 11 10 10 10 9 9 8 9 9 9 10 10 10 10 10 10 10 10 11 12 14 16 17 18
34 36 36 37 35 34 33 32 29 26 22 19 17 14 12 11 14 14 14 12 11 10 10 10 10 10 10 9 11 12 11 9 8 8 9 10 12 13 15 17 15 15 18
30 33 36 36 36 36 34 32 29 26 22 19 16 13 12 13 17 15 13 12 11 10 10 11 11 10 10 10 10 11 8 7 8 9 11 12 12 13 14 16 17 18 20
25 28 31 32 34 34 34 31 29 25 21 19 16 17 16 13 17 14 13 13 11 10 10 10 10 9 7 7 7 6 7 8 10 10 10 12 11 13 15 17 17 18 19
22 24 26 27 28 29 28 28 26 24 23 20 21 18 14 17 15 14 14 13 11 10 10 9 8 8 7 8 8 8 8 9 10 10 10 11 14 16 17 18 17 20 21
21 21 21 21 22 22 24 26 27 26 24 21 17 15 15 14 14 14 14 13 11 11 10 10 9 8 8 8 8 9 10 11 11 11 12 14 16 18 18 18 19 20 21

GFSGL_850_spd_141.txt.gz
Wind_Speed
9 12 13 14 14 13 14 15 14 13 12 14 21 23 26 28 27 27 25 24 20 18 19 14 12 15 15 16 20 23 27 25 22 21 18 15 14 14 14 15 17 20 19
12 10 12 13 13 15 16 14 13 13 13 13 12 11 13 17 22 26 27 25 19 18 18 17 20 23 24 23 26 21 20 19 16 13 12 12 13 13 15 18 20 21 21
11 12 15 15 15 13 13 11 10 10 11 11 10 11 11 10 11 12 13 16 18 19 20 20 19 19 19 18 17 14 10 10 10 10 11 11 14 15 17 19 20 19 17
13 13 13 13 11 10 12 11 11 11 10 11 12 12 11 9 9 9 10 11 11 12 12 13 13 15 15 13 11 11 10 10 10 10 10 12 14 17 16 14 14 13 13
12 14 16 16 15 14 14 12 11 11 12 11 11 10 9 8 7 8 8 9 10 11 12 11 10 9 10 9 9 9 9 9 10 11 12 12 10 10 11 12 12 12 8
15 14 15 15 15 14 12 12 12 12 12 10 10 10 10 9 9 9 7 7 7 7 8 9 9 9 10 10 10 10 11 11 10 10 9 10 7 8 9 11 9 6 7
15 15 15 15 14 14 15 14 13 12 12 11 10 8 8 8 8 7 7 7 8 7 8 8 8 9 9 10 12 12 11 10 11 10 6 7 8 11 12 8 4 7 11
17 16 15 15 15 15 15 14 14 14 13 12 10 9 8 8 8 8 8 7 8 9 9 9 9 10 13 10 8 5 5 5 5 5 11 14 11 9 6 7 9 9 7
17 16 15 15 16 16 16 15 14 13 11 10 9 7 8 8 7 7 7 7 8 9 9 11 11 9 14 11 10 8 6 6 11 8 11 13 13 10 8 9 4 8 6
17 17 16 15 14 14 14 13 11 10 10 9 8 7 6 6 6 6 5 4 4 5 7 10 11 12 13 10 7 7 8 11 11 9 10 10 7 5 4 4 5 4 8
18 18 17 15 15 14 15 14 14 12 11 10 9 6 4 4 5 5 4 3 3 3 4 3 7 9 6 6 8 8 8 11 9 10 5 3 2 2 2 3 5 5 6
20 20 19 18 18 17 17 16 15 13 12 10 9 7 6 4 5 4 5 5 5 4 4 4 10 6 7 7 5 9 8 8 8 6 4 5 3 4 5 6 8 7 8
23 22 21 18 16 15 15 15 13 12 12 11 10 9 8 6 5 4 3 3 2 3 4 8 7 5 7 8 9 8 11 9 9 8 6 6 7 8 8 9 10 10 10
25 23 21 20 18 17 16 15 14 14 13 12 12 10 9 8 8 6 6 5 5 4 6 6 5 6 5 7 4 7 11 10 7 6 7 8 9 9 8 10 12 11 12
26 24 23 20 19 18 16 16 16 14 13 13 13 12 11 10 9 7 6 4 4 6 9 5 3 3 3 3 4 7 9 9 7 9 10 11 9 9 9 11 12 13 14
28 27 27 26 24 23 20 19 18 17 15 14 13 12 12 11 8 8 8 8 9 10 6 5 4 5 5 6 7 7 8 9 10 11 10 10 11 11 12 13 12 14 17
32 30 29 28 26 27 25 23 21 19 17 16 15 14 13 10 10 9 9 8 9 8 5 5 5 6 7 7 7 9 9 9 9 9 10 11 11 12 11 12 13 17 18
33 31 30 29 29 27 26 24 22 21 20 18 18 17 15 12 10 9 9 8 9 9 7 8 7 9 9 7 8 8 9 9 9 10 10 11 12 13 13 13 16 17 16
35 35 33 30 30 29 27 25 24 22 20 19 19 18 16 13 11 10 10 9 9 9 7 9 11 9 8 10 11 12 12 13 12 11 12 14 12 12 14 16 15 12 13
35 36 34 33 32 32 30 29 27 25 22 20 18 17 15 15 13 8 9 9 9 10 10 11 10 9 8 10 9 9 9 9 10 12 13 14 13 13 12 11 12 14 16
34 36 35 34 34 33 32 31 29 26 24 21 18 15 12 12 10 8 11 12 11 11 11 11 11 9 8 9 9 9 9 10 9 9 9 8 9 9 10 13 15 16 13
32 34 36 36 35 34 32 31 30 27 25 22 19 17 15 14 9 13 15 15 12 12 12 12 11 10 10 10 9 11 13 13 8 8 8 9 10 11 12 12 12 14 16
30 32 33 34 35 34 32 31 31 28 26 23 21 18 18 14 17 15 14 15 13 12 12 12 11 10 10 9 9 9 8 6 8 9 10 11 11 9 10 12 14 14 16
25 28 30 29 31 32 32 31 30 28 27 26 22 20 19 21 17 15 15 14 13 13 12 11 11 9 8 8 7 5 5 7 9 9 10 10 10 8 12 15 15 16 17
22 23 25 25 26 27 27 27 28 29 29 26 25 22 23 19 16 15 14 14 13 13 12 11 10 9 8 8 7 7 8 7 9 9 10 9 11 13 16 17 18 19 18
19 22 22 21 20 21 22 24 28 28 29 28 22 18 17 15 15 14 13 13 13 12 12 11 10 9 9 9 8 8 9 10 11 11 11 12 13 15 17 19 19 19 20

GFSGL_850_spd_144.txt.gz
Wind_Speed
7 8 8 9 10 16 8 15 15 14 12 13 19 23 28 32 30 27 26 24 20 21 20 18 18 16 14 15 17 15 17 25 24 26 25 24 21 17 16 15 15 17 19
11 11 12 11 11 15 14 15 13 13 10 9 16 20 22 28 33 31 25 25 24 24 22 16 15 15 15 18 23 26 26 23 21 19 20 17 14 13 15 16 18 19 21
10 11 14 15 15 16 17 16 14 12 12 13 13 13 16 19 23 24 25 24 21 19 19 17 16 16 19 22 22 18 16 15 12 11 11 11 12 13 15 17 20 21 20
14 16 17 18 16 17 17 16 15 13 12 13 12 12 14 14 13 12 12 12 12 12 13 15 17 16 14 13 13 11 9 8 9 10 10 11 12 14 17 17 17 16 14
17 18 18 16 15 15 15 15 16 16 14 13 12 13 13 13 11 11 10 9 9 9 9 10 11 11 10 9 8 7 9 9 10 10 11 12 12 13 15 15 16 13 4
14 15 16 17 18 17 15 14 15 15 14 13 13 11 11 11 10 10 8 8 8 7 7 8 8 7 7 7 8 10 9 10 11 11 10 11 9 11 16 16 16 7 6
18 18 17 16 16 15 15 16 15 15 13 14 13 12 12 12 11 10 9 7 6 6 5 5 5 6 6 7 8 8 10 12 12 10 10 11 12 15 19 19 13 9 11
17 18 17 16 16 16 16 15 15 14 13 12 13 12 11 11 10 9 7 6 6 5 4 6 6 7 8 8 8 7 8 11 9 9 12 14 16 17 20 14 9 6 3
19 18 17 16 16 16 16 15 13 13 12 10 10 9 8 8 7 6 5 5 5 6 7 8 8 9 10 10 11 9 7 11 12 12 11 13 14 11 11 11 7 6 5
20 18 16 15 15 16 16 15 14 12 10 8 7 8 8 7 7 6 4 3 3 3 4 6 9 11 11 9 9 8 8 9 10 11 8 10 6 3 4 3 6 6 7
20 18 17 16 15 15 15 13 12 10 10 9 6 7 7 7 7 6 4 3 2 1 3 4 5 8 9 7 7 8 8 10 10 11 12 6 2 3 3 3 4 5 5
21 19 18 16 15 14 13 13 11 11 11 9 8 6 6 6 6 5 4 2 3 3 6 7 8 8 7 5 6 7 8 9 10 9 6 5 4 5 6 7 7 8 8
23 22 20 18 16 15 15 15 13 12 11 10 8 7 4 5 5 5 4 4 6 7 7 7 7 8 5 6 7 7 8 9 9 8 8 7 8 8 9 9 9 9 10
24 22 21 19 17 15 15 14 13 13 12 11 9 8 6 5 4 3 3 3 3 5 5 6 8 5 5 4 3 5 8 8 8 7 7 8 8 9 9 9 9 10 11
25 24 22 20 19 18 16 15 14 12 11 11 10 9 8 7 6 4 4 4 3 3 7 9 10 4 4 3 3 5 8 8 7 8 8 9 10 11 8 11 12 12 11
28 27 25 23 22 20 19 18 16 14 13 11 11 11 10 9 7 6 7 6 7 8 10 9 7 5 6 6 5 8 7 7 7 9 10 9 8 9 11 12 12 12 14
29 28 26 25 24 24 23 21 20 19 16 14 13 13 11 9 9 9 8 8 9 10 9 9 8 6 8 7 7 8 8 8 8 7 7 7 8 9 10 10 11 12 15
29 27 27 26 25 25 25 23 21 20 18 17 17 16 14 12 11 10 9 8 9 8 9 9 9 11 10 9 9 9 10 9 9 8 8 9 10 12 13 11 11 15 14
31 31 29 27 26 25 24 24 22 20 19 19 18 18 17 15 13 12 10 8 9 11 10 8 9 11 11 9 9 11 12 13 12 13 12 10 12 11 12 13 14 11 11
31 31 30 28 28 27 26 25 24 22 20 20 20 18 16 17 15 14 10 7 12 14 11 12 13 12 11 10 10 10 9 9 9 10 11 12 12 11 9 9 10 12 15
30 32 32 31 30 29 28 27 26 24 22 21 18 15 14 14 16 14 11 19 15 13 12 13 12 11 10 9 10 10 10 10 9 9 9 8 7 8 9 10 12 12 11
28 31 33 32 30 30 28 27 26 25 23 22 20 17 17 16 19 14 17 18 11 11 13 12 12 11 11 11 11 11 11 12 12 9 8 7 8 10 10 9 10 12 13
26 28 31 32 31 29 27 26 26 26 26 25 23 21 19 18 15 15 18 13 11 12 12 11 11 11 10 10 10 10 10 9 6 8 10 11 12 11 9 10 12 14 15
24 26 27 28 30 29 28 26 26 25 26 28 25 23 19 16 16 17 16 12 12 11 12 11 11 11 9 7 6 5 4 5 7 10 11 10 8 7 7 11 13 15 16
22 24 24 24 25 25 24 25 25 25 27 27 26 24 19 14 14 16 13 12 11 11 10 10 10 9 7 6 6 7 7 8 9 9 9 9 8 10 12 14 16 18 17
20 21 20 19 19 20 20 21 22 23 25 25 24 20 18 12 13 13 11 10 10 10 9 9 9 8 7 7 7 8 7 8 9 10 10 11 11 12 14 16 18 18 18

GFSGL_850_spd_147.txt.gz
Wind_Speed
6 6 6 7 8 5 4 11 18 16 16 20 21 27 31 29 28 28 27 27 27 24 21 20 21 18 17 15 15 16 18 16 16 23 30 23 20 19 18 16 14 13 14
10 9 9 9 9 11 6 11 15 18 17 19 20 24 27 32 32 31 28 26 25 23 23 21 19 18 15 13 15 17 22 26 30 29 20 18 17 15 14 13 13 15 18
11 12 11 12 12 14 14 13 14 13 14 14 20 24 25 29 32 30 29 30 25 23 24 24 22 23 20 20 22 23 24 22 16 15 12 10 10 11 13 14 16 18 19
13 13 15 15 16 18 17 15 15 14 14 14 16 16 17 20 25 29 29 27 26 25 20 18 17 16 16 18 18 15 12 10 7 6 7 9 10 12 14 17 17 18 15
14 16 16 16 18 18 16 15 15 17 17 16 17 16 15 14 13 13 14 14 14 14 13 12 13 14 13 11 9 8 8 7 7 7 9 10 12 14 16 17 15 15 10
16 15 13 13 14 15 16 17 16 16 17 16 16 16 16 15 14 13 11 11 10 9 10 10 9 9 7 6 6 7 7 7 8 9 11 12 12 14 15 15 15 15 11
19 17 16 17 18 16 15 15 14 14 14 15 14 14 14 13 12 12 11 10 10 10 9 8 7 7 6 6 6 6 8 10 12 12 12 11 12 13 15 16 17 17 13
22 22 20 20 19 19 19 18 17 15 14 14 15 14 14 15 13 12 11 9 9 8 7 7 6 7 7 8 8 8 9 8 8 7 9 11 13 15 17 18 15 8 5
23 22 22 20 20 18 18 17 16 16 16 15 13 13 11 13 11 10 8 7 7 7 6 5 5 7 8 8 9 10 9 8 8 9 9 11 13 9 9 10 11 8 5
27 24 21 20 18 18 17 17 16 14 14 14 15 13 12 10 10 8 7 5 5 5 6 7 8 9 8 10 10 13 11 8 6 7 8 10 6 2 2 2 5 5 7
25 22 21 19 18 17 17 15 15 14 14 14 13 13 12 10 8 7 5 5 4 4 3 2 3 4 7 8 7 9 9 8 8 9 11 10 2 2 2 2 2 4 4
25 23 22 22 21 20 17 17 16 14 14 14 14 14 13 11 10 7 5 3 1 1 1 2 3 5 6 5 6 9 10 9 10 12 11 6 3 5 5 5 8 7 8
27 24 23 21 20 19 18 17 17 15 13 13 13 12 12 11 9 7 5 3 2 2 3 5 6 8 8 8 9 7 8 8 8 10 9 7 6 6 7 9 7 8 8
28 26 24 23 22 20 18 16 15 15 14 12 11 11 10 9 8 8 7 5 4 4 4 4 5 8 7 6 5 5 5 8 9 9 7 7 8 8 9 9 8 9 12
28 27 25 23 21 19 17 15 13 11 8 7 7 7 7 7 6 6 5 4 3 3 3 5 8 7 6 7 3 1 4 6 7 7 7 8 9 10 8 9 10 11 11
30 29 27 24 22 20 19 18 16 12 12 10 9 7 5 5 5 5 4 3 4 5 6 8 8 8 7 8 7 4 5 5 5 7 8 9 9 8 8 10 11 11 10
30 29 28 25 23 22 21 19 18 18 15 12 9 8 7 7 7 6 4 4 5 7 9 11 10 8 7 11 10 5 6 7 7 7 7 6 7 8 8 9 10 10 11
30 27 27 26 24 23 22 20 18 17 14 14 13 11 10 9 8 8 7 7 6 7 7 9 10 10 9 9 9 7 6 8 8 8 8 8 9 9 10 10 9 11 13
30 29 27 25 23 22 21 19 18 17 16 15 14 13 13 12 11 11 9 8 8 8 9 11 9 8 9 11 8 7 8 8 9 10 11 11 9 10 11 11 12 10 10
29 27 25 24 24 23 22 21 20 20 19 18 17 15 15 15 15 13 9 12 9 13 14 11 9 10 11 11 9 8 7 7 7 8 9 9 9 9 8 8 8 10 13
29 28 25 24 25 24 23 22 20 20 20 18 16 16 16 15 14 10 11 12 9 16 9 9 10 11 11 10 9 9 8 7 8 8 9 8 7 7 7 9 11 11 11
28 28 27 26 25 24 23 22 21 20 19 18 17 18 17 15 13 10 10 11 11 10 8 9 10 11 11 10 10 11 10 8 10 10 6 6 7 9 10 10 8 10 13
27 27 27 26 24 23 23 23 22 21 20 20 18 19 19 15 10 12 11 11 12 8 8 9 10 10 10 11 10 10 8 8 6 4 7 10 12 13 10 8 10 12 14
25 25 26 25 23 22 23 22 21 20 20 20 20 20 18 12 9 7 10 10 10 8 8 9 9 9 9 7 5 4 3 3 4 7 9 10 8 5 6 8 11 13 16
24 24 24 22 20 20 20 20 19 19 19 19 19 20 16 15 12 8 8 10 8 8 8 8 8 7 7 5 3 4 4 5 7 8 9 8 8 8 10 12 13 16 17
23 22 20 18 18 17 17 17 16 16 16 17 17 17 15 14 13 8 9 9 7 7 7 6 5 5 5 4 3 5 5 6 6 7 9 9 10 11 13 14 15 17 17

GFSGL_850_spd_150.txt.gz
Wind_Speed
7 8 9 7 7 5 1 5 7 14 28 28 28 29 30 32 31 31 31 30 27 26 26 24 22 23 23 18 15 15 18 13 10 12 15 20 23 22 17 14 13 12 12
7 8 9 7 8 6 5 6 14 18 21 22 27 31 30 30 27 26 27 29 25 21 24 27 27 23 19 16 15 14 16 17 17 22 28 27 19 14 13 12 11 13 14
7 7 8 8 8 10 10 10 14 14 15 18 23 24 27 28 28 26 26 25 23 27 27 21 20 16 15 14 15 16 16 18 23 23 18 15 12 9 10 11 12 14 15
10 9 10 10 12 13 11 13 13 13 15 19 25 27 27 26 26 26 25 25 23 21 20 23 18 17 18 16 14 14 17 17 14 11 9 9 9 10 11 12 14 15 16
12 12 13 14 14 13 11 12 13 12 13 12 17 19 19 22 23 22 20 21 22 22 22 22 22 18 15 14 14 13 12 9 8 7 8 9 10 12 14 15 15 14 13
15 16 14 14 14 12 11 13 13 14 15 15 16 14 14 14 14 14 16 16 15 13 11 10 9 9 9 9 9 9 7 7 8 9 10 11 13 14 14 14 14 13 13
19 17 14 13 14 15 15 14 14 15 16 16 17 16 16 16 15 15 13 12 11 9 8 7 7 8 6 6 7 7 7 8 9 11 11 11 12 13 14 14 15 16 17
20 18 15 17 17 15 14 14 15 14 14 15 14 13 12 12 11 11 11 10 9 9 8 7 5 6 7 8 8 9 10 9 9 9 9 10 11 13 15 17 16 14 10
20 18 17 17 16 17 16 15 15 15 15 15 15 14 12 14 12 10 9 8 7 7 7 6 6 7 8 9 9 10 10 9 9 11 9 7 10 11 10 9 10 9 9
25 23 21 20 19 17 17 17 17 15 16 16 16 13 12 11 11 9 8 6 6 6 6 6 6 7 8 9 11 12 12 9 7 4 5 7 11 2 3 2 2 4 5
27 25 23 20 18 17 18 18 17 17 16 15 14 14 12 10 10 8 7 6 5 4 5 5 5 7 9 10 10 10 9 8 7 7 7 9 5 2 2 1 1 3 3
28 25 23 22 21 19 18 18 17 16 16 16 16 15 14 12 11 9 7 7 5 4 3 3 2 3 4 4 4 5 7 7 7 8 9 10 4 4 5 7 8 9 7
29 27 25 24 22 21 20 19 18 17 16 15 14 14 13 12 10 8 7 5 4 3 2 2 3 6 8 6 9 10 9 8 8 9 9 9 7 7 8 9 8 8 8
31 28 27 26 24 22 19 17 17 16 15 13 13 13 13 12 10 8 5 3 2 1 1 3 5 8 6 5 6 9 6 6 9 9 9 8 7 8 8 10 8 8 9
32 29 28 27 26 24 21 17 15 13 9 8 9 9 8 9 8 7 4 3 2 1 2 3 7 7 7 7 7 4 2 5 6 7 7 7 8 9 10 9 7 9 10
34 31 29 28 27 24 22 20 16 11 12 11 10 9 11 10 8 6 4 4 2 2 2 7 10 9 8 7 8 7 3 4 5 7 8 8 8 8 7 9 10 10 10
33 31 30 28 28 26 25 23 22 19 16 13 11 11 11 6 7 7 6 4 4 5 6 9 10 9 7 7 9 9 5 6 7 7 7 7 7 7 8 9 10 10 10
33 31 30 29 28 26 24 23 20 17 16 16 15 12 10 9 8 7 5 2 8 8 7 7 10 8 7 7 9 7 6 6 9 9 8 7 7 9 10 10 9 9 11
34 32 29 27 25 23 22 21 19 16 15 13 13 14 13 12 10 10 7 6 11 10 7 10 9 7 6 8 8 7 7 7 7 7 8 9 10 10 11 10 10 9 9
32 29 27 26 26 24 23 22 20 19 17 16 15 14 14 16 15 10 7 7 10 7 8 9 7 7 8 9 8 7 7 7 7 7 8 8 8 8 8 8 8 8 10
32 30 27 26 25 23 23 22 21 20 18 17 15 15 15 14 12 10 8 10 7 7 11 6 7 8 9 9 9 8 8 7 6 8 9 9 7 6 6 7 9 9 9
30 28 27 26 24 24 23 22 20 19 18 17 16 17 17 15 13 10 7 7 7 9 9 6 7 9 10 10 10 10 10 8 7 9 8 5 6 8 10 11 10 10 12
29 28 26 25 23 22 22 21 19 18 17 17 17 18 18 15 12 11 7 7 8 9 7 6 8 9 10 10 10 8 8 5 5 4 4 8 11 11 9 6 7 9 11
29 27 25 23 22 22 20 19 18 17 17 17 17 17 16 12 13 8 6 8 8 9 7 7 8 8 9 8 7 5 3 2 3 4 7 9 8 6 6 8 9 9 12
28 27 25 23 21 20 19 18 17 17 16 16 16 17 15 15 16 11 7 7 8 8 7 7 6 6 6 5 4 3 3 4 5 7 8 9 8 8 9 11 12 13 14
29 26 23 21 20 19 18 16 16 16 16 16 16 16 15 15 16 13 7 8 9 7 6 6 5 4 3 4 3 3 4 5 6 7 8 8 9 10 11 13 13 15 16

GFSGL_850_spd_153.txt.gz
Wind_Speed
8 8 8 8 9 10 8 10 11 11 11 12 15 18 26 32 37 38 34 23 28 27 30 24 21 16 16 18 20 19 20 24 16 16 16 15 15 19 22 23 18 13 11
6 7 7 6 6 5 1 6 4 6 7 13 18 19 23 27 30 33 31 30 31 28 27 29 27 26 22 20 18 18 16 18 14 15 17 17 20 24 22 17 14 11 12
5 3 5 4 4 4 1 1 7 9 10 21 18 21 28 29 29 30 26 28 30 30 31 29 28 25 20 19 17 15 17 20 20 18 20 20 19 16 14 12 11 12 13
5 6 4 4 6 5 5 6 6 6 9 11 14 21 20 20 22 24 24 25 26 24 17 19 21 20 20 18 16 15 15 15 14 14 13 12 12 11 11 11 12 13 13
6 6 6 7 6 7 7 6 5 8 12 12 15 18 21 21 20 21 21 22 19 18 18 18 16 15 17 12 10 8 8 8 9 8 8 9 9 10 11 12 12 13 14
9 10 10 11 10 10 10 10 11 11 10 11 14 13 12 12 14 14 13 11 11 11 14 15 12 9 7 5 5 6 6 6 6 7 8 10 11 12 13 13 13 13 11
14 14 12 11 9 9 10 11 12 13 14 14 14 12 12 11 11 11 10 9 8 7 7 6 5 5 4 4 4 4 5 6 8 9 10 12 12 12 13 13 13 13 14
16 15 13 11 10 12 11 11 12 14 14 14 15 16 16 17 15 14 13 12 10 8 6 6 5 3 3 4 5 6 6 7 8 8 8 9 10 12 13 14 15 14 14
20 17 13 13 13 12 12 12 12 13 14 14 13 12 11 13 12 10 9 10 9 8 7 4 3 3 4 5 6 7 7 7 8 8 10 9 8 7 6 7 7 7 8
22 18 16 16 14 15 13 12 13 13 14 14 15 13 12 13 12 10 9 7 6 6 5 4 3 3 5 6 7 8 7 6 5 4 7 8 12 9 6 6 4 3 5
22 20 18 18 16 13 14 14 14 14 14 14 13 13 12 10 11 9 8 6 5 3 2 1 2 4 7 8 9 8 6 6 4 6 9 11 12 9 6 6 6 6 7
24 22 21 19 17 16 16 16 15 14 13 13 11 11 10 10 9 8 7 6 5 4 2 1 2 5 6 6 4 2 2 4 6 7 9 12 13 7 7 8 10 12 11
28 26 24 21 19 19 19 18 17 15 13 12 12 11 10 10 9 8 7 6 5 3 3 3 5 8 8 6 6 7 4 6 6 8 10 12 13 9 9 10 10 10 8
32 29 25 23 22 21 20 18 16 15 14 12 12 11 10 9 8 7 6 4 3 2 3 4 7 9 9 8 6 6 7 6 7 10 10 11 10 9 10 9 10 9 9
33 30 27 25 24 23 20 16 13 10 7 5 7 7 6 6 7 7 5 4 3 3 2 5 8 8 7 6 6 7 4 5 7 7 8 8 8 9 10 10 9 9 11
34 32 30 28 25 23 21 18 16 11 10 11 10 7 8 9 8 6 5 3 3 2 2 5 6 8 8 7 8 9 7 5 6 7 8 9 9 9 8 9 9 9 10
35 34 31 29 27 26 24 21 21 19 16 13 12 12 11 6 8 7 5 4 1 6 3 6 8 10 9 8 8 9 8 7 7 8 8 8 9 8 8 9 10 11 10
35 33 32 30 28 25 23 22 20 19 17 17 17 15 13 11 9 8 6 6 2 7 5 7 10 10 8 7 8 9 8 8 9 10 10 9 9 9 10 11 10 11 11
37 34 30 27 26 24 22 21 20 18 15 15 16 16 15 12 10 9 8 7 4 7 7 8 13 7 6 7 9 9 8 9 9 8 9 9 9 9 10 11 11 9 10
35 31 28 27 26 24 23 22 21 20 18 17 16 15 15 15 13 11 9 7 6 6 6 9 9 7 8 9 9 9 8 8 8 8 8 9 9 9 8 8 9 11 12
35 32 28 26 26 25 24 23 22 21 20 18 16 15 13 11 9 8 7 7 6 6 6 11 8 7 8 9 9 8 8 8 7 8 9 11 9 7 8 9 11 11 11
35 32 30 28 26 25 24 22 22 21 19 18 18 17 15 14 12 10 9 7 7 7 7 10 8 7 8 8 8 9 9 8 6 7 9 6 6 8 11 12 12 11 11
34 32 29 27 25 24 24 23 22 21 19 19 18 18 17 15 13 12 11 9 9 7 9 9 7 7 7 8 8 7 7 6 4 4 4 7 10 10 9 7 9 11 10
33 30 28 26 25 25 24 23 21 21 20 19 19 18 17 14 14 15 14 11 8 8 9 9 7 7 6 6 6 5 2 2 3 4 6 9 9 8 8 10 11 12 14
32 30 28 26 25 24 23 22 21 21 21 21 20 19 18 17 18 18 15 9 7 9 9 8 6 5 4 4 4 3 2 4 5 6 8 9 8 8 10 12 13 13 14
31 29 27 25 24 22 21 22 22 21 21 20 20 19 18 17 18 20 15 10 9 11 8 7 5 3 3 2 2 3 3 4 5 6 7 8 8 10 10 11 12 14 14